Wetterdaten: Mittwoch, 03.04.2019
Datum Zeit Temp. Aussen Temp. o. S. +5cm Feuchte Auss Luftdruck Regen Sonnenschein Regendauer Solar Windben Empfang
03.04.2019 00:00 8,4 C 7,2 C 6,7 C 95 % 1001,0 hPa 0,0 l/m 0 min 0 min 0 W/m 6,4 km/h (2 Bft) 97,87 %
03.04.2019 00:02 8,4 C 7,2 C 6,7 C 95 % 1000,9 hPa 0,0 l/m 0 min 0 min 0 W/m 3,2 km/h (1 Bft) 96,97 %
03.04.2019 00:04 8,4 C 7,2 C 6,7 C 95 % 1001,0 hPa 0,0 l/m 0 min 0 min 0 W/m 3,2 km/h (1 Bft) 93,62 %
03.04.2019 00:07 8,4 C 7,2 C 6,7 C 95 % 1001,0 hPa 0,0 l/m 0 min 0 min 0 W/m 6,4 km/h (2 Bft) 93,90 %
03.04.2019 00:08 8,4 C 7,2 C 6,7 C 95 % 1001,0 hPa 0,0 l/m 0 min 0 min 0 W/m 3,2 km/h (1 Bft) 100,00 %
03.04.2019 00:10 8,4 C 7,2 C 7,2 C 95 % 1001,0 hPa 0,0 l/m 0 min 0 min 0 W/m 6,4 km/h (2 Bft) 95,74 %
03.04.2019 00:12 8,4 C 7,2 C 7,2 C 95 % 1000,9 hPa 0,0 l/m 0 min 0 min 0 W/m 6,4 km/h (2 Bft) 97,87 %
03.04.2019 00:14 8,4 C 7,2 C 7,2 C 95 % 1000,9 hPa 0,0 l/m 0 min 0 min 0 W/m 6,4 km/h (2 Bft) 97,83 %
03.04.2019 00:16 8,4 C 7,2 C 7,2 C 95 % 1000,9 hPa 0,0 l/m 0 min 0 min 0 W/m 6,4 km/h (2 Bft) 97,87 %
03.04.2019 00:18 8,4 C 7,8 C 7,2 C 95 % 1000,9 hPa 0,0 l/m 0 min 0 min 0 W/m 12,9 km/h (3 Bft) 97,87 %
03.04.2019 00:20 8,4 C 7,8 C 7,2 C 95 % 1000,9 hPa 0,0 l/m 0 min 0 min 0 W/m 3,2 km/h (1 Bft) 95,74 %
03.04.2019 00:22 8,4 C 7,8 C 7,2 C 95 % 1001,0 hPa 0,0 l/m 0 min 0 min 0 W/m 12,9 km/h (3 Bft) 97,87 %
03.04.2019 00:24 8,4 C 7,8 C 7,8 C 95 % 1001,0 hPa 0,0 l/m 0 min 0 min 0 W/m 6,4 km/h (2 Bft) 97,87 %
03.04.2019 00:26 8,4 C 7,8 C 7,8 C 95 % 1001,0 hPa 0,0 l/m 0 min 0 min 0 W/m 12,9 km/h (3 Bft) 97,83 %
03.04.2019 00:28 8,4 C 7,8 C 7,8 C 95 % 1001,0 hPa 0,0 l/m 0 min 0 min 0 W/m 16,1 km/h (3 Bft) 97,87 %
03.04.2019 00:30 8,4 C 7,8 C 7,8 C 95 % 1001,0 hPa 0,0 l/m 0 min 0 min 0 W/m 16,1 km/h (3 Bft) 97,87 %
03.04.2019 00:32 8,4 C 7,8 C 7,8 C 95 % 1001,0 hPa 0,0 l/m 0 min 0 min 0 W/m 12,9 km/h (3 Bft) 97,87 %
03.04.2019 00:34 8,5 C 7,8 C 7,8 C 95 % 1001,1 hPa 0,0 l/m 0 min 0 min 0 W/m 9,7 km/h (2 Bft) 97,87 %
03.04.2019 00:36 8,5 C 7,8 C 7,8 C 95 % 1001,1 hPa 0,0 l/m 0 min 0 min 0 W/m 9,7 km/h (2 Bft) 96,55 %
03.04.2019 00:38 8,5 C 7,8 C 7,8 C 95 % 1001,1 hPa 0,0 l/m 0 min 0 min 0 W/m 6,4 km/h (2 Bft) 91,43 %
03.04.2019 00:40 8,6 C 7,8 C 7,8 C 95 % 1001,0 hPa 0,0 l/m 0 min 0 min 0 W/m 12,9 km/h (3 Bft) 97,87 %
03.04.2019 00:42 8,6 C 7,8 C 7,8 C 95 % 1001,1 hPa 0,0 l/m 0 min 0 min 0 W/m 6,4 km/h (2 Bft) 97,87 %
03.04.2019 00:44 8,6 C 7,8 C 7,8 C 95 % 1001,0 hPa 0,0 l/m 0 min 0 min 0 W/m 12,9 km/h (3 Bft) 97,87 %
03.04.2019 00:46 8,6 C 7,8 C 7,8 C 95 % 1001,1 hPa 0,0 l/m 0 min 0 min 0 W/m 9,7 km/h (2 Bft) 97,87 %
03.04.2019 00:48 8,6 C 7,8 C 7,8 C 95 % 1001,2 hPa 0,0 l/m 0 min 0 min 0 W/m 22,5 km/h (4 Bft) 97,83 %
03.04.2019 00:50 8,6 C 7,8 C 7,8 C 95 % 1001,3 hPa 0,0 l/m 0 min 0 min 0 W/m 22,5 km/h (4 Bft) 97,87 %
03.04.2019 00:52 8,6 C 7,8 C 7,8 C 95 % 1001,3 hPa 0,0 l/m 0 min 0 min 0 W/m 16,1 km/h (3 Bft) 100,00 %
03.04.2019 00:54 8,6 C 7,8 C 7,8 C 95 % 1001,3 hPa 0,0 l/m 0 min 0 min 0 W/m 16,1 km/h (3 Bft) 97,87 %
03.04.2019 00:56 8,6 C 7,8 C 7,8 C 95 % 1001,3 hPa 0,0 l/m 0 min 2 min 0 W/m 9,7 km/h (2 Bft) 100,00 %
03.04.2019 00:58 8,7 C 7,8 C 7,2 C 95 % 1001,3 hPa 0,0 l/m 0 min 2 min 0 W/m 9,7 km/h (2 Bft) 100,00 %
03.04.2019 01:00 8,7 C 7,2 C 7,2 C 95 % 1001,3 hPa 0,0 l/m 0 min 2 min 0 W/m 16,1 km/h (3 Bft) 100,00 %
03.04.2019 01:02 8,7 C 7,2 C 7,2 C 94 % 1001,3 hPa 0,0 l/m 0 min 2 min 0 W/m 16,1 km/h (3 Bft) 100,00 %
03.04.2019 01:04 8,7 C 7,2 C 7,2 C 94 % 1001,2 hPa 0,0 l/m 0 min 2 min 0 W/m 16,1 km/h (3 Bft) 100,00 %
03.04.2019 01:06 8,7 C 7,2 C 7,2 C 94 % 1001,2 hPa 0,0 l/m 0 min 2 min 0 W/m 12,9 km/h (3 Bft) 98,31 %
03.04.2019 01:08 8,7 C 7,2 C 7,2 C 94 % 1001,3 hPa 0,0 l/m 0 min 2 min 0 W/m 12,9 km/h (3 Bft) 100,00 %
03.04.2019 01:10 8,7 C 7,2 C 7,2 C 94 % 1001,3 hPa 0,0 l/m 0 min 2 min 0 W/m 9,7 km/h (2 Bft) 100,00 %
03.04.2019 01:12 8,7 C 7,2 C 6,7 C 94 % 1001,4 hPa 0,0 l/m 0 min 2 min 0 W/m 19,3 km/h (3 Bft) 100,00 %
03.04.2019 01:14 8,7 C 7,2 C 6,7 C 94 % 1001,4 hPa 0,0 l/m 0 min 2 min 0 W/m 12,9 km/h (3 Bft) 100,00 %
03.04.2019 01:16 8,7 C 7,2 C 6,7 C 94 % 1001,3 hPa 0,2 l/m 0 min 2 min 0 W/m 12,9 km/h (3 Bft) 95,74 %
03.04.2019 01:18 8,6 C 7,2 C 6,7 C 94 % 1001,3 hPa 0,0 l/m 0 min 2 min 0 W/m 19,3 km/h (3 Bft) 100,00 %
03.04.2019 01:20 8,6 C 7,2 C 6,7 C 94 % 1001,2 hPa 0,0 l/m 0 min 2 min 0 W/m 9,7 km/h (2 Bft) 100,00 %
03.04.2019 01:22 8,6 C 7,2 C 6,7 C 94 % 1001,1 hPa 0,0 l/m 0 min 0 min 0 W/m 9,7 km/h (2 Bft) 100,00 %
03.04.2019 01:24 8,6 C 7,2 C 6,7 C 94 % 1001,1 hPa 0,0 l/m 0 min 2 min 0 W/m 6,4 km/h (2 Bft) 100,00 %
03.04.2019 01:26 8,6 C 7,2 C 6,7 C 94 % 1001,2 hPa 0,0 l/m 0 min 2 min 0 W/m 9,7 km/h (2 Bft) 100,00 %
03.04.2019 01:28 8,6 C 7,2 C 6,7 C 94 % 1001,3 hPa 0,0 l/m 0 min 2 min 0 W/m 9,7 km/h (2 Bft) 100,00 %
03.04.2019 01:30 8,5 C 7,2 C 6,7 C 94 % 1001,2 hPa 0,0 l/m 0 min 2 min 0 W/m 6,4 km/h (2 Bft) 100,00 %
03.04.2019 01:32 8,5 C 7,2 C 6,7 C 94 % 1001,2 hPa 0,0 l/m 0 min 2 min 0 W/m 9,7 km/h (2 Bft) 100,00 %
03.04.2019 01:34 8,5 C 7,2 C 6,7 C 94 % 1001,1 hPa 0,0 l/m 0 min 2 min 0 W/m 6,4 km/h (2 Bft) 97,87 %
03.04.2019 01:36 8,4 C 6,7 C 6,7 C 94 % 1001,1 hPa 0,0 l/m 0 min 2 min 0 W/m 9,7 km/h (2 Bft) 100,00 %
03.04.2019 01:38 8,4 C 6,7 C 6,7 C 94 % 1001,0 hPa 0,0 l/m 0 min 2 min 0 W/m 6,4 km/h (2 Bft) 100,00 %
03.04.2019 01:40 8,4 C 6,7 C 6,7 C 94 % 1001,0 hPa 0,0 l/m 0 min 2 min 0 W/m 9,7 km/h (2 Bft) 100,00 %
03.04.2019 01:42 8,3 C 6,7 C 6,7 C 94 % 1001,1 hPa 0,0 l/m 0 min 2 min 0 W/m 9,7 km/h (2 Bft) 100,00 %
03.04.2019 01:44 8,3 C 6,7 C 6,7 C 94 % 1001,0 hPa 0,0 l/m 0 min 2 min 0 W/m 6,4 km/h (2 Bft) 100,00 %
03.04.2019 01:46 8,3 C 6,7 C 6,7 C 94 % 1000,9 hPa 0,0 l/m 0 min 2 min 0 W/m 0,0 km/h (0 Bft) 100,00 %
03.04.2019 01:48 8,3 C 6,7 C 6,7 C 94 % 1000,9 hPa 0,0 l/m 0 min 2 min 0 W/m 3,2 km/h (1 Bft) 100,00 %
03.04.2019 01:50 8,3 C 6,7 C 6,7 C 94 % 1000,9 hPa 0,0 l/m 0 min 2 min 0 W/m 3,2 km/h (1 Bft) 95,74 %
03.04.2019 01:52 8,2 C 6,7 C 6,7 C 94 % 1000,9 hPa 0,0 l/m 0 min 2 min 0 W/m 6,4 km/h (2 Bft) 100,00 %
03.04.2019 01:54 8,2 C 6,7 C 6,7 C 94 % 1000,8 hPa 0,0 l/m 0 min 2 min 0 W/m 12,9 km/h (3 Bft) 97,87 %
03.04.2019 01:56 8,2 C 6,7 C 6,7 C 94 % 1000,9 hPa 0,0 l/m 0 min 2 min 0 W/m 6,4 km/h (2 Bft) 97,87 %
03.04.2019 01:58 8,2 C 6,7 C 6,7 C 94 % 1000,9 hPa 0,0 l/m 0 min 2 min 0 W/m 3,2 km/h (1 Bft) 100,00 %
03.04.2019 02:00 8,2 C 6,7 C 6,7 C 94 % 1000,8 hPa 0,0 l/m 0 min 2 min 0 W/m 3,2 km/h (1 Bft) 97,87 %
03.04.2019 02:02 8,2 C 6,7 C 6,7 C 94 % 1000,8 hPa 0,0 l/m 0 min 0 min 0 W/m 3,2 km/h (1 Bft) 95,74 %
03.04.2019 02:04 8,1 C 6,7 C 6,7 C 94 % 1000,8 hPa 0,0 l/m 0 min 0 min 0 W/m 3,2 km/h (1 Bft) 95,74 %
03.04.2019 02:06 8,1 C 6,7 C 6,7 C 94 % 1000,9 hPa 0,0 l/m 0 min 0 min 0 W/m 0,0 km/h (0 Bft) 98,28 %
03.04.2019 02:08 8,1 C 6,7 C 6,7 C 94 % 1000,9 hPa 0,0 l/m 0 min 0 min 0 W/m 0,0 km/h (0 Bft) 94,44 %
03.04.2019 02:10 8,1 C 6,7 C 6,7 C 94 % 1000,9 hPa 0,0 l/m 0 min 2 min 0 W/m 0,0 km/h (0 Bft) 95,65 %
03.04.2019 02:12 8,1 C 6,7 C 6,7 C 94 % 1001,0 hPa 0,0 l/m 0 min 2 min 0 W/m 6,4 km/h (2 Bft) 95,74 %
03.04.2019 02:14 8,0 C 6,7 C 6,1 C 94 % 1001,1 hPa 0,2 l/m 0 min 2 min 0 W/m 9,7 km/h (2 Bft) 95,74 %
03.04.2019 02:16 8,0 C 6,7 C 6,1 C 94 % 1001,2 hPa 0,0 l/m 0 min 2 min 0 W/m 9,7 km/h (2 Bft) 95,74 %
03.04.2019 02:18 7,9 C 6,1 C 6,1 C 94 % 1001,1 hPa 0,0 l/m 0 min 2 min 0 W/m 3,2 km/h (1 Bft) 97,87 %
03.04.2019 02:20 7,9 C 6,1 C 6,1 C 94 % 1001,0 hPa 0,0 l/m 0 min 2 min 0 W/m 6,4 km/h (2 Bft) 95,74 %
03.04.2019 02:22 7,9 C 6,1 C 6,1 C 94 % 1001,0 hPa 0,0 l/m 0 min 2 min 0 W/m 6,4 km/h (2 Bft) 95,65 %
03.04.2019 02:24 7,8 C 6,1 C 6,1 C 94 % 1001,0 hPa 0,0 l/m 0 min 2 min 0 W/m 9,7 km/h (2 Bft) 95,74 %
03.04.2019 02:26 7,8 C 6,1 C 6,1 C 94 % 1001,0 hPa 0,0 l/m 0 min 0 min 0 W/m 6,4 km/h (2 Bft) 93,62 %
03.04.2019 02:28 7,8 C 6,1 C 5,6 C 94 % 1001,0 hPa 0,0 l/m 0 min 2 min 0 W/m 6,4 km/h (2 Bft) 95,74 %
03.04.2019 02:30 7,8 C 6,1 C 6,1 C 94 % 1001,0 hPa 0,0 l/m 0 min 0 min 0 W/m 0,0 km/h (0 Bft) 93,62 %
03.04.2019 02:32 7,8 C 6,1 C 6,1 C 93 % 1001,0 hPa 0,0 l/m 0 min 0 min 0 W/m 6,4 km/h (2 Bft) 95,74 %
03.04.2019 02:34 7,7 C 6,1 C 6,1 C 94 % 1001,0 hPa 0,0 l/m 0 min 0 min 0 W/m 3,2 km/h (1 Bft) 95,65 %
03.04.2019 02:36 7,7 C 6,1 C 5,6 C 94 % 1000,9 hPa 0,0 l/m 0 min 0 min 0 W/m 3,2 km/h (1 Bft) 93,22 %
03.04.2019 02:38 7,7 C 6,1 C 5,6 C 94 % 1000,9 hPa 0,0 l/m 0 min 0 min 0 W/m 3,2 km/h (1 Bft) 97,14 %
03.04.2019 02:40 7,6 C 6,1 C 5,6 C 94 % 1000,9 hPa 0,0 l/m 0 min 0 min 0 W/m 9,7 km/h (2 Bft) 95,74 %
03.04.2019 02:42 7,6 C 6,1 C 5,6 C 93 % 1000,9 hPa 0,0 l/m 0 min 0 min 0 W/m 9,7 km/h (2 Bft) 95,92 %
03.04.2019 02:44 7,6 C 6,1 C 5,6 C 93 % 1000,9 hPa 0,0 l/m 0 min 0 min 0 W/m 6,4 km/h (2 Bft) 95,74 %
03.04.2019 02:46 7,5 C 6,1 C 5,6 C 93 % 1000,8 hPa 0,0 l/m 0 min 0 min 0 W/m 3,2 km/h (1 Bft) 93,62 %
03.04.2019 02:48 7,5 C 6,1 C 5,6 C 93 % 1000,9 hPa 0,0 l/m 0 min 0 min 0 W/m 3,2 km/h (1 Bft) 93,62 %
03.04.2019 02:50 7,4 C 6,1 C 5,6 C 93 % 1000,9 hPa 0,0 l/m 0 min 0 min 0 W/m 3,2 km/h (1 Bft) 93,48 %
03.04.2019 02:52 7,4 C 6,1 C 5,6 C 93 % 1000,9 hPa 0,0 l/m 0 min 0 min 0 W/m 6,4 km/h (2 Bft) 93,62 %
03.04.2019 02:54 7,4 C 6,1 C 5,6 C 93 % 1001,0 hPa 0,0 l/m 0 min 0 min 0 W/m 0,0 km/h (0 Bft) 91,49 %
03.04.2019 02:56 7,4 C 6,1 C 5,6 C 93 % 1001,0 hPa 0,0 l/m 0 min 0 min 0 W/m 9,7 km/h (2 Bft) 95,74 %
03.04.2019 02:58 7,4 C 6,1 C 5,6 C 93 % 1000,9 hPa 0,0 l/m 0 min 0 min 0 W/m 6,4 km/h (2 Bft) 95,74 %
03.04.2019 03:00 7,3 C 6,1 C 5,6 C 93 % 1000,9 hPa 0,0 l/m 0 min 0 min 0 W/m 3,2 km/h (1 Bft) 95,74 %
03.04.2019 03:02 7,3 C 6,1 C 5,6 C 93 % 1001,0 hPa 0,0 l/m 0 min 0 min 0 W/m 9,7 km/h (2 Bft) 95,65 %
03.04.2019 03:04 7,3 C 6,1 C 5,6 C 93 % 1001,0 hPa 0,0 l/m 0 min 0 min 0 W/m 3,2 km/h (1 Bft) 95,74 %
03.04.2019 03:06 7,3 C 6,1 C 5,6 C 93 % 1001,0 hPa 0,0 l/m 0 min 0 min 0 W/m 3,2 km/h (1 Bft) 96,61 %
03.04.2019 03:08 7,3 C 6,1 C 5,6 C 93 % 1001,0 hPa 0,0 l/m 0 min 0 min 0 W/m 3,2 km/h (1 Bft) 100,00 %
03.04.2019 03:10 7,3 C 6,1 C 5,6 C 93 % 1001,1 hPa 0,0 l/m 0 min 0 min 0 W/m 0,0 km/h (0 Bft) 97,87 %
03.04.2019 03:12 7,3 C 6,1 C 5,6 C 93 % 1001,0 hPa 0,0 l/m 0 min 0 min 0 W/m 3,2 km/h (1 Bft) 93,62 %
03.04.2019 03:14 7,2 C 6,1 C 5,6 C 93 % 1000,9 hPa 0,0 l/m 0 min 0 min 0 W/m 3,2 km/h (1 Bft) 95,65 %
03.04.2019 03:16 7,2 C 6,1 C 5,6 C 93 % 1000,9 hPa 0,0 l/m 0 min 0 min 0 W/m 6,4 km/h (2 Bft) 97,87 %
03.04.2019 03:18 7,2 C 5,6 C 5,6 C 93 % 1001,0 hPa 0,0 l/m 0 min 0 min 0 W/m 3,2 km/h (1 Bft) 97,87 %
03.04.2019 03:20 7,2 C 5,6 C 5,6 C 93 % 1001,0 hPa 0,0 l/m 0 min 0 min 0 W/m 6,4 km/h (2 Bft) 97,87 %
03.04.2019 03:22 7,2 C 5,6 C 5,6 C 93 % 1001,0 hPa 0,0 l/m 0 min 0 min 0 W/m 3,2 km/h (1 Bft) 97,87 %
03.04.2019 03:24 7,2 C 5,6 C 5,6 C 93 % 1001,1 hPa 0,0 l/m 0 min 0 min 0 W/m 0,0 km/h (0 Bft) 97,87 %
03.04.2019 03:26 7,2 C 5,6 C 5,6 C 93 % 1001,0 hPa 0,0 l/m 0 min 0 min 0 W/m 3,2 km/h (1 Bft) 95,65 %
03.04.2019 03:28 7,1 C 5,6 C 5,6 C 93 % 1001,0 hPa 0,0 l/m 0 min 0 min 0 W/m 3,2 km/h (1 Bft) 97,87 %
03.04.2019 03:30 7,1 C 5,6 C 5,6 C 93 % 1001,0 hPa 0,0 l/m 0 min 0 min 0 W/m 0,0 km/h (0 Bft) 95,74 %
03.04.2019 03:32 7,1 C 5,6 C 5,6 C 93 % 1000,9 hPa 0,0 l/m 0 min 0 min 0 W/m 3,2 km/h (1 Bft) 97,87 %
03.04.2019 03:34 7,1 C 5,6 C 5,6 C 93 % 1001,0 hPa 0,0 l/m 0 min 0 min 0 W/m 12,9 km/h (3 Bft) 100,00 %
03.04.2019 03:36 7,1 C 5,6 C 5,6 C 93 % 1001,0 hPa 0,0 l/m 0 min 0 min 0 W/m 6,4 km/h (2 Bft) 100,00 %
03.04.2019 03:38 7,1 C 5,6 C 5,6 C 93 % 1000,9 hPa 0,0 l/m 0 min 0 min 0 W/m 3,2 km/h (1 Bft) 100,00 %
03.04.2019 03:40 7,1 C 5,6 C 5,6 C 93 % 1000,9 hPa 0,0 l/m 0 min 0 min 0 W/m 3,2 km/h (1 Bft) 97,87 %
03.04.2019 03:42 7,0 C 5,6 C 5,6 C 93 % 1001,0 hPa 0,0 l/m 0 min 0 min 0 W/m 3,2 km/h (1 Bft) 97,87 %
03.04.2019 03:44 7,0 C 5,6 C 5,6 C 93 % 1001,0 hPa 0,0 l/m 0 min 0 min 0 W/m 3,2 km/h (1 Bft) 100,00 %
03.04.2019 03:46 7,0 C 5,6 C 5,6 C 93 % 1001,0 hPa 0,0 l/m 0 min 0 min 0 W/m 3,2 km/h (1 Bft) 97,87 %
03.04.2019 03:48 7,0 C 5,6 C 5,6 C 93 % 1001,0 hPa 0,0 l/m 0 min 0 min 0 W/m 3,2 km/h (1 Bft) 95,74 %
03.04.2019 03:50 7,0 C 5,6 C 5,6 C 93 % 1000,9 hPa 0,0 l/m 0 min 0 min 0 W/m 3,2 km/h (1 Bft) 100,00 %
03.04.2019 03:52 6,9 C 5,6 C 5,6 C 93 % 1000,9 hPa 0,0 l/m 0 min 0 min 0 W/m 3,2 km/h (1 Bft) 100,00 %
03.04.2019 03:54 6,9 C 5,6 C 5,6 C 93 % 1000,9 hPa 0,0 l/m 0 min 0 min 0 W/m 9,7 km/h (2 Bft) 100,00 %
03.04.2019 03:56 6,9 C 5,6 C 5,6 C 93 % 1001,0 hPa 0,0 l/m 0 min 0 min 0 W/m 3,2 km/h (1 Bft) 97,87 %
03.04.2019 03:58 6,9 C 5,6 C 5,6 C 93 % 1000,9 hPa 0,0 l/m 0 min 0 min 0 W/m 3,2 km/h (1 Bft) 100,00 %
03.04.2019 04:00 6,9 C 5,6 C 5,6 C 93 % 1000,9 hPa 0,0 l/m 0 min 0 min 0 W/m 6,4 km/h (2 Bft) 100,00 %
03.04.2019 04:02 6,9 C 5,6 C 5,6 C 93 % 1000,8 hPa 0,0 l/m 0 min 0 min 0 W/m 3,2 km/h (1 Bft) 100,00 %
03.04.2019 04:04 6,9 C 5,6 C 5,6 C 93 % 1000,8 hPa 0,0 l/m 0 min 0 min 0 W/m 0,0 km/h (0 Bft) 100,00 %
03.04.2019 04:06 6,9 C 5,6 C 5,6 C 93 % 1000,7 hPa 0,0 l/m 0 min 0 min 0 W/m 0,0 km/h (0 Bft) 100,00 %
03.04.2019 04:08 6,9 C 5,6 C 5,0 C 93 % 1000,7 hPa 0,0 l/m 0 min 0 min 0 W/m 0,0 km/h (0 Bft) 100,00 %
03.04.2019 04:10 6,9 C 5,6 C 5,0 C 93 % 1000,8 hPa 0,0 l/m 0 min 0 min 0 W/m 0,0 km/h (0 Bft) 100,00 %
03.04.2019 04:12 6,8 C 5,6 C 5,0 C 93 % 1000,8 hPa 0,0 l/m 0 min 0 min 0 W/m 0,0 km/h (0 Bft) 100,00 %
03.04.2019 04:14 6,8 C 5,6 C 5,0 C 93 % 1000,8 hPa 0,0 l/m 0 min 0 min 0 W/m 3,2 km/h (1 Bft) 97,87 %
03.04.2019 04:16 6,8 C 5,6 C 5,0 C 93 % 1000,8 hPa 0,0 l/m 0 min 0 min 0 W/m 3,2 km/h (1 Bft) 100,00 %
03.04.2019 04:18 6,8 C 5,6 C 5,0 C 93 % 1000,7 hPa 0,0 l/m 0 min 0 min 0 W/m 0,0 km/h (0 Bft) 100,00 %
03.04.2019 04:20 6,8 C 5,6 C 5,0 C 93 % 1000,7 hPa 0,0 l/m 0 min 0 min 0 W/m 0,0 km/h (0 Bft) 100,00 %
03.04.2019 04:22 6,8 C 5,6 C 5,0 C 93 % 1000,7 hPa 0,0 l/m 0 min 0 min 0 W/m 3,2 km/h (1 Bft) 97,87 %
03.04.2019 04:24 6,8 C 5,6 C 5,0 C 93 % 1000,7 hPa 0,0 l/m 0 min 0 min 0 W/m 3,2 km/h (1 Bft) 100,00 %
03.04.2019 04:26 6,8 C 5,6 C 5,0 C 93 % 1000,7 hPa 0,0 l/m 0 min 0 min 0 W/m 3,2 km/h (1 Bft) 100,00 %
03.04.2019 04:28 6,7 C 5,6 C 5,0 C 93 % 1000,7 hPa 0,0 l/m 0 min 0 min 0 W/m 3,2 km/h (1 Bft) 100,00 %
03.04.2019 04:30 6,7 C 5,6 C 5,0 C 93 % 1000,7 hPa 0,0 l/m 0 min 0 min 0 W/m 3,2 km/h (1 Bft) 97,87 %
03.04.2019 04:32 6,7 C 5,6 C 5,0 C 93 % 1000,8 hPa 0,0 l/m 0 min 0 min 0 W/m 6,4 km/h (2 Bft) 97,87 %
03.04.2019 04:34 6,7 C 5,6 C 5,0 C 93 % 1000,9 hPa 0,0 l/m 0 min 0 min 0 W/m 3,2 km/h (1 Bft) 97,87 %
03.04.2019 04:36 6,7 C 5,6 C 5,0 C 93 % 1000,9 hPa 0,0 l/m 0 min 0 min 0 W/m 3,2 km/h (1 Bft) 100,00 %
03.04.2019 04:38 6,7 C 5,6 C 5,0 C 93 % 1000,9 hPa 0,0 l/m 0 min 0 min 0 W/m 6,4 km/h (2 Bft) 97,87 %
03.04.2019 04:40 6,7 C 5,6 C 5,0 C 93 % 1000,8 hPa 0,0 l/m 0 min 0 min 0 W/m 3,2 km/h (1 Bft) 97,83 %
03.04.2019 04:42 6,7 C 5,6 C 5,0 C 93 % 1000,8 hPa 0,0 l/m 0 min 0 min 0 W/m 3,2 km/h (1 Bft) 97,87 %
03.04.2019 04:44 6,7 C 5,6 C 5,0 C 93 % 1000,7 hPa 0,0 l/m 0 min 0 min 0 W/m 0,0 km/h (0 Bft) 97,87 %
03.04.2019 04:46 6,6 C 5,6 C 5,0 C 93 % 1000,7 hPa 0,0 l/m 0 min 0 min 0 W/m 3,2 km/h (1 Bft) 97,87 %
03.04.2019 04:48 6,6 C 5,6 C 5,0 C 93 % 1000,7 hPa 0,0 l/m 0 min 0 min 0 W/m 3,2 km/h (1 Bft) 97,87 %
03.04.2019 04:50 6,6 C 5,6 C 5,0 C 93 % 1000,6 hPa 0,0 l/m 0 min 0 min 0 W/m 0,0 km/h (0 Bft) 97,87 %
03.04.2019 04:52 6,6 C 5,6 C 5,0 C 93 % 1000,7 hPa 0,0 l/m 0 min 0 min 0 W/m 0,0 km/h (0 Bft) 95,65 %
03.04.2019 04:54 6,6 C 5,6 C 5,0 C 93 % 1000,7 hPa 0,0 l/m 0 min 0 min 0 W/m 3,2 km/h (1 Bft) 97,87 %
03.04.2019 04:56 6,6 C 5,6 C 5,0 C 93 % 1000,6 hPa 0,0 l/m 0 min 0 min 0 W/m 0,0 km/h (0 Bft) 97,87 %
03.04.2019 04:58 6,6 C 5,6 C 5,0 C 93 % 1000,7 hPa 0,0 l/m 0 min 0 min 0 W/m 3,2 km/h (1 Bft) 97,87 %
03.04.2019 05:00 6,6 C 5,6 C 5,0 C 93 % 1000,7 hPa 0,0 l/m 0 min 0 min 0 W/m 0,0 km/h (0 Bft) 97,87 %
03.04.2019 05:02 6,6 C 5,6 C 5,0 C 93 % 1000,7 hPa 0,0 l/m 0 min 0 min 0 W/m 3,2 km/h (1 Bft) 97,87 %
03.04.2019 05:04 6,6 C 5,6 C 5,0 C 93 % 1000,8 hPa 0,0 l/m 0 min 0 min 0 W/m 3,2 km/h (1 Bft) 97,83 %
03.04.2019 05:05 6,6 C 5,6 C 5,0 C 93 % 1000,7 hPa 0,0 l/m 0 min 0 min 0 W/m 3,2 km/h (1 Bft) 100,00 %
03.04.2019 05:10 6,5 C 5,6 C 5,0 C 93 % 1000,8 hPa 0,0 l/m 0 min 0 min 0 W/m 6,4 km/h (2 Bft) 100,00 %
03.04.2019 05:12 6,5 C 5,6 C 5,0 C 93 % 1000,8 hPa 0,0 l/m 0 min 0 min 0 W/m 0,0 km/h (0 Bft) 96,15 %
03.04.2019 05:14 6,5 C 5,6 C 5,0 C 93 % 1000,7 hPa 0,0 l/m 0 min 0 min 0 W/m 3,2 km/h (1 Bft) 97,87 %
03.04.2019 05:16 6,5 C 5,6 C 5,0 C 93 % 1000,7 hPa 0,0 l/m 0 min 0 min 0 W/m 0,0 km/h (0 Bft) 100,00 %
03.04.2019 05:18 6,5 C 5,6 C 5,0 C 93 % 1000,7 hPa 0,0 l/m 0 min 0 min 0 W/m 3,2 km/h (1 Bft) 97,83 %
03.04.2019 05:20 6,4 C 5,6 C 5,0 C 93 % 1000,6 hPa 0,0 l/m 0 min 0 min 0 W/m 0,0 km/h (0 Bft) 97,87 %
03.04.2019 05:22 6,4 C 5,0 C 5,0 C 93 % 1000,7 hPa 0,0 l/m 0 min 0 min 0 W/m 0,0 km/h (0 Bft) 100,00 %
03.04.2019 05:24 6,4 C 5,0 C 5,0 C 93 % 1000,8 hPa 0,0 l/m 0 min 0 min 0 W/m 0,0 km/h (0 Bft) 97,96 %
03.04.2019 05:26 6,4 C 5,6 C 5,0 C 93 % 1000,8 hPa 0,0 l/m 0 min 0 min 0 W/m 0,0 km/h (0 Bft) 97,96 %
03.04.2019 05:28 6,4 C 5,6 C 5,0 C 93 % 1000,7 hPa 0,0 l/m 0 min 0 min 0 W/m 0,0 km/h (0 Bft) 100,00 %
03.04.2019 05:30 6,4 C 5,6 C 5,0 C 93 % 1000,7 hPa 0,0 l/m 0 min 0 min 0 W/m 0,0 km/h (0 Bft) 100,00 %
03.04.2019 05:32 6,4 C 5,6 C 5,0 C 93 % 1000,7 hPa 0,0 l/m 0 min 0 min 0 W/m 0,0 km/h (0 Bft) 100,00 %
03.04.2019 05:34 6,4 C 5,6 C 5,0 C 93 % 1000,7 hPa 0,0 l/m 0 min 0 min 0 W/m 0,0 km/h (0 Bft) 97,87 %
03.04.2019 05:36 6,4 C 5,6 C 5,0 C 93 % 1000,6 hPa 0,0 l/m 0 min 0 min 0 W/m 0,0 km/h (0 Bft) 98,39 %
03.04.2019 05:38 6,4 C 5,6 C 5,0 C 93 % 1000,6 hPa 0,0 l/m 0 min 0 min 0 W/m 0,0 km/h (0 Bft) 97,14 %
03.04.2019 05:40 6,4 C 5,6 C 5,0 C 93 % 1000,6 hPa 0,0 l/m 0 min 0 min 0 W/m 0,0 km/h (0 Bft) 97,87 %
03.04.2019 05:42 6,4 C 5,6 C 5,0 C 93 % 1000,6 hPa 0,0 l/m 0 min 0 min 0 W/m 0,0 km/h (0 Bft) 97,83 %
03.04.2019 05:44 6,4 C 5,6 C 5,0 C 93 % 1000,7 hPa 0,0 l/m 0 min 0 min 0 W/m 0,0 km/h (0 Bft) 95,24 %
03.04.2019 05:46 6,4 C 5,6 C 5,0 C 93 % 1000,6 hPa 0,0 l/m 0 min 0 min 0 W/m 0,0 km/h (0 Bft) 97,96 %
03.04.2019 05:48 6,4 C 5,6 C 5,0 C 93 % 1000,6 hPa 0,0 l/m 0 min 0 min 0 W/m 0,0 km/h (0 Bft) 95,92 %
03.04.2019 05:50 6,4 C 5,6 C 5,0 C 93 % 1000,5 hPa 0,0 l/m 0 min 0 min 0 W/m 3,2 km/h (1 Bft) 95,83 %
03.04.2019 05:52 6,4 C 5,6 C 5,0 C 93 % 1000,5 hPa 0,0 l/m 0 min 0 min 0 W/m 0,0 km/h (0 Bft) 95,74 %
03.04.2019 05:54 6,4 C 5,6 C 5,0 C 93 % 1000,5 hPa 0,0 l/m 0 min 0 min 0 W/m 0,0 km/h (0 Bft) 95,65 %
03.04.2019 05:56 6,4 C 5,6 C 5,0 C 93 % 1000,5 hPa 0,0 l/m 0 min 0 min 0 W/m 3,2 km/h (1 Bft) 93,62 %
03.04.2019 05:58 6,4 C 5,6 C 5,0 C 93 % 1000,6 hPa 0,0 l/m 0 min 0 min 0 W/m 0,0 km/h (0 Bft) 95,35 %
03.04.2019 06:00 6,4 C 5,6 C 5,0 C 93 % 1000,6 hPa 0,0 l/m 0 min 0 min 0 W/m 3,2 km/h (1 Bft) 95,74 %
03.04.2019 06:02 6,4 C 5,6 C 5,0 C 93 % 1000,5 hPa 0,0 l/m 0 min 0 min 0 W/m 6,4 km/h (2 Bft) 93,88 %
03.04.2019 06:04 6,4 C 5,6 C 5,0 C 93 % 1000,5 hPa 0,0 l/m 0 min 0 min 0 W/m 0,0 km/h (0 Bft) 89,36 %
03.04.2019 06:07 6,4 C 5,6 C 5,0 C 93 % 1000,4 hPa 0,0 l/m 0 min 0 min 0 W/m 0,0 km/h (0 Bft) 97,59 %
03.04.2019 06:08 6,4 C 5,6 C 5,0 C 93 % 1000,4 hPa 0,0 l/m 0 min 0 min 0 W/m 0,0 km/h (0 Bft) 83,33 %
03.04.2019 06:10 6,4 C 5,6 C 5,0 C 93 % 1000,5 hPa 0,0 l/m 0 min 0 min 0 W/m 0,0 km/h (0 Bft) 95,74 %
03.04.2019 06:12 6,4 C 5,6 C 5,0 C 93 % 1000,5 hPa 0,0 l/m 0 min 0 min 0 W/m 3,2 km/h (1 Bft) 95,74 %
03.04.2019 06:14 6,3 C 5,6 C 5,0 C 93 % 1000,5 hPa 0,0 l/m 0 min 2 min 0 W/m 3,2 km/h (1 Bft) 95,74 %
03.04.2019 06:16 6,3 C 5,6 C 5,0 C 93 % 1000,5 hPa 0,0 l/m 0 min 0 min 0 W/m 0,0 km/h (0 Bft) 95,12 %
03.04.2019 06:18 6,4 C 5,6 C 5,0 C 93 % 1000,5 hPa 0,0 l/m 0 min 2 min 0 W/m 0,0 km/h (0 Bft) 95,74 %
03.04.2019 06:20 6,4 C 5,6 C 5,0 C 93 % 1000,5 hPa 0,0 l/m 0 min 2 min 0 W/m 0,0 km/h (0 Bft) 95,74 %
03.04.2019 06:22 6,4 C 5,6 C 5,0 C 93 % 1000,5 hPa 0,0 l/m 0 min 2 min 0 W/m 0,0 km/h (0 Bft) 95,92 %
03.04.2019 06:24 6,4 C 5,6 C 5,0 C 93 % 1000,5 hPa 0,0 l/m 0 min 0 min 0 W/m 0,0 km/h (0 Bft) 95,74 %
03.04.2019 06:26 6,4 C 5,6 C 5,0 C 93 % 1000,5 hPa 0,0 l/m 0 min 2 min 0 W/m 0,0 km/h (0 Bft) 97,92 %
03.04.2019 06:28 6,4 C 5,0 C 5,0 C 93 % 1000,5 hPa 0,0 l/m 0 min 0 min 0 W/m 0,0 km/h (0 Bft) 97,87 %
03.04.2019 06:30 6,3 C 5,0 C 5,0 C 93 % 1000,4 hPa 0,0 l/m 0 min 0 min 0 W/m 0,0 km/h (0 Bft) 95,83 %
03.04.2019 06:32 6,4 C 5,0 C 5,0 C 93 % 1000,4 hPa 0,0 l/m 0 min 2 min 0 W/m 0,0 km/h (0 Bft) 95,74 %
03.04.2019 06:34 6,3 C 5,0 C 5,0 C 93 % 1000,4 hPa 0,0 l/m 0 min 2 min 0 W/m 0,0 km/h (0 Bft) 97,87 %
03.04.2019 06:36 6,3 C 5,0 C 4,4 C 93 % 1000,4 hPa 0,0 l/m 0 min 2 min 0 W/m 0,0 km/h (0 Bft) 97,87 %
03.04.2019 06:38 6,4 C 5,0 C 4,4 C 93 % 1000,4 hPa 0,0 l/m 0 min 2 min 0 W/m 0,0 km/h (0 Bft) 97,56 %
03.04.2019 06:40 6,3 C 5,0 C 4,4 C 93 % 1000,4 hPa 0,0 l/m 0 min 0 min 0 W/m 0,0 km/h (0 Bft) 97,96 %
03.04.2019 06:42 6,3 C 5,0 C 4,4 C 93 % 1000,4 hPa 0,0 l/m 0 min 2 min 0 W/m 0,0 km/h (0 Bft) 97,87 %
03.04.2019 06:44 6,3 C 5,0 C 4,4 C 93 % 1000,4 hPa 0,0 l/m 0 min 0 min 0 W/m 0,0 km/h (0 Bft) 97,87 %
03.04.2019 06:46 6,3 C 5,0 C 4,4 C 93 % 1000,4 hPa 0,0 l/m 0 min 2 min 0 W/m 0,0 km/h (0 Bft) 97,96 %
03.04.2019 06:48 6,3 C 5,0 C 4,4 C 93 % 1000,4 hPa 0,0 l/m 0 min 2 min 0 W/m 0,0 km/h (0 Bft) 97,92 %
03.04.2019 06:50 6,3 C 5,0 C 4,4 C 93 % 1000,4 hPa 0,0 l/m 0 min 2 min 0 W/m 0,0 km/h (0 Bft) 97,87 %
03.04.2019 06:52 6,3 C 5,0 C 4,4 C 93 % 1000,4 hPa 0,0 l/m 0 min 2 min 0 W/m 0,0 km/h (0 Bft) 100,00 %
03.04.2019 06:54 6,3 C 5,0 C 4,4 C 93 % 1000,5 hPa 0,0 l/m 0 min 2 min 0 W/m 0,0 km/h (0 Bft) 100,00 %
03.04.2019 06:56 6,3 C 5,0 C 4,4 C 93 % 1000,4 hPa 0,0 l/m 0 min 2 min 0 W/m 0,0 km/h (0 Bft) 95,92 %
03.04.2019 06:58 6,3 C 5,0 C 4,4 C 93 % 1000,4 hPa 0,0 l/m 0 min 2 min 0 W/m 0,0 km/h (0 Bft) 96,00 %
03.04.2019 07:00 6,3 C 5,0 C 4,4 C 93 % 1000,4 hPa 0,0 l/m 0 min 2 min 0 W/m 0,0 km/h (0 Bft) 100,00 %
03.04.2019 07:02 6,3 C 5,0 C 4,4 C 93 % 1000,4 hPa 0,0 l/m 0 min 2 min 0 W/m 0,0 km/h (0 Bft) 100,00 %
03.04.2019 07:04 6,3 C 5,0 C 4,4 C 93 % 1000,4 hPa 0,2 l/m 0 min 2 min 0 W/m 0,0 km/h (0 Bft) 95,74 %
03.04.2019 07:06 6,3 C 5,0 C 4,4 C 93 % 1000,4 hPa 0,0 l/m 0 min 2 min 0 W/m 0,0 km/h (0 Bft) 98,31 %
03.04.2019 07:08 6,3 C 5,0 C 4,4 C 93 % 1000,4 hPa 0,0 l/m 0 min 2 min 0 W/m 0,0 km/h (0 Bft) 97,14 %
03.04.2019 07:10 6,3 C 5,0 C 5,0 C 93 % 1000,4 hPa 0,0 l/m 0 min 2 min 0 W/m 0,0 km/h (0 Bft) 100,00 %
03.04.2019 07:12 6,3 C 5,0 C 5,0 C 93 % 1000,4 hPa 0,0 l/m 0 min 2 min 0 W/m 0,0 km/h (0 Bft) 97,87 %
03.04.2019 07:14 6,3 C 5,0 C 4,4 C 93 % 1000,4 hPa 0,0 l/m 0 min 2 min 0 W/m 0,0 km/h (0 Bft) 97,83 %
03.04.2019 07:16 6,3 C 5,0 C 5,0 C 93 % 1000,4 hPa 0,0 l/m 0 min 2 min 0 W/m 0,0 km/h (0 Bft) 97,96 %
03.04.2019 07:18 6,3 C 5,0 C 5,0 C 93 % 1000,4 hPa 0,2 l/m 0 min 2 min 0 W/m 0,0 km/h (0 Bft) 95,74 %
03.04.2019 07:20 6,3 C 5,0 C 4,4 C 93 % 1000,4 hPa 0,0 l/m 0 min 2 min 0 W/m 0,0 km/h (0 Bft) 97,96 %
03.04.2019 07:22 6,3 C 5,0 C 5,0 C 93 % 1000,4 hPa 0,0 l/m 0 min 2 min 0 W/m 0,0 km/h (0 Bft) 95,74 %
03.04.2019 07:24 6,3 C 5,0 C 4,4 C 94 % 1000,4 hPa 0,0 l/m 0 min 2 min 0 W/m 0,0 km/h (0 Bft) 93,48 %
03.04.2019 07:26 6,3 C 5,0 C 4,4 C 94 % 1000,4 hPa 0,0 l/m 0 min 2 min 0 W/m 0,0 km/h (0 Bft) 95,92 %
03.04.2019 07:28 6,3 C 5,0 C 4,4 C 94 % 1000,4 hPa 0,0 l/m 0 min 2 min 0 W/m 0,0 km/h (0 Bft) 95,65 %
03.04.2019 07:30 6,3 C 5,0 C 4,4 C 94 % 1000,4 hPa 0,0 l/m 0 min 2 min 0 W/m 0,0 km/h (0 Bft) 97,87 %
03.04.2019 07:32 6,3 C 5,0 C 4,4 C 94 % 1000,4 hPa 0,0 l/m 0 min 2 min 0 W/m 0,0 km/h (0 Bft) 97,87 %
03.04.2019 07:34 6,3 C 5,0 C 4,4 C 94 % 1000,4 hPa 0,0 l/m 0 min 2 min 5 W/m 0,0 km/h (0 Bft) 97,87 %
03.04.2019 07:36 6,3 C 5,0 C 5,0 C 94 % 1000,4 hPa 0,0 l/m 0 min 2 min 6 W/m 0,0 km/h (0 Bft) 98,28 %
03.04.2019 07:38 6,3 C 5,0 C 5,0 C 94 % 1000,4 hPa 0,0 l/m 0 min 2 min 7 W/m 0,0 km/h (0 Bft) 96,67 %
03.04.2019 07:40 6,3 C 5,0 C 4,4 C 94 % 1000,4 hPa 0,0 l/m 0 min 2 min 7 W/m 0,0 km/h (0 Bft) 97,96 %
03.04.2019 07:42 6,3 C 5,0 C 5,0 C 94 % 1000,5 hPa 0,2 l/m 0 min 2 min 7 W/m 0,0 km/h (0 Bft) 93,62 %
03.04.2019 07:44 6,3 C 5,0 C 5,0 C 94 % 1000,5 hPa 0,0 l/m 0 min 2 min 7 W/m 0,0 km/h (0 Bft) 97,87 %
03.04.2019 07:46 6,3 C 5,0 C 5,0 C 94 % 1000,5 hPa 0,0 l/m 0 min 2 min 9 W/m 0,0 km/h (0 Bft) 95,74 %
03.04.2019 07:48 6,3 C 5,0 C 5,0 C 94 % 1000,5 hPa 0,0 l/m 0 min 2 min 10 W/m 3,2 km/h (1 Bft) 97,92 %
03.04.2019 07:50 6,3 C 5,0 C 5,0 C 94 % 1000,5 hPa 0,0 l/m 0 min 2 min 11 W/m 0,0 km/h (0 Bft) 97,87 %
03.04.2019 07:52 6,3 C 5,0 C 5,0 C 94 % 1000,5 hPa 0,0 l/m 0 min 2 min 12 W/m 0,0 km/h (0 Bft) 97,92 %
03.04.2019 07:54 6,4 C 5,0 C 5,0 C 94 % 1000,6 hPa 0,2 l/m 0 min 2 min 15 W/m 0,0 km/h (0 Bft) 97,87 %
03.04.2019 07:56 6,4 C 5,0 C 5,0 C 94 % 1000,6 hPa 0,0 l/m 0 min 2 min 18 W/m 0,0 km/h (0 Bft) 97,87 %
03.04.2019 07:58 6,4 C 5,0 C 5,0 C 94 % 1000,7 hPa 0,0 l/m 0 min 2 min 19 W/m 0,0 km/h (0 Bft) 97,87 %
03.04.2019 08:00 6,4 C 5,0 C 5,0 C 94 % 1000,7 hPa 0,0 l/m 0 min 2 min 18 W/m 3,2 km/h (1 Bft) 97,87 %
03.04.2019 08:02 6,4 C 5,0 C 5,0 C 94 % 1000,6 hPa 0,0 l/m 0 min 2 min 19 W/m 3,2 km/h (1 Bft) 100,00 %
03.04.2019 08:04 6,4 C 5,0 C 5,0 C 94 % 1000,7 hPa 0,0 l/m 0 min 2 min 19 W/m 3,2 km/h (1 Bft) 97,87 %
03.04.2019 08:06 6,4 C 5,6 C 5,0 C 94 % 1000,7 hPa 0,2 l/m 0 min 2 min 20 W/m 3,2 km/h (1 Bft) 100,00 %
03.04.2019 08:08 6,4 C 5,6 C 5,0 C 94 % 1000,7 hPa 0,0 l/m 0 min 2 min 22 W/m 0,0 km/h (0 Bft) 100,00 %
03.04.2019 08:10 6,4 C 5,6 C 5,0 C 94 % 1000,7 hPa 0,2 l/m 0 min 2 min 23 W/m 3,2 km/h (1 Bft) 100,00 %
03.04.2019 08:12 6,4 C 5,6 C 5,0 C 94 % 1000,7 hPa 0,0 l/m 0 min 2 min 21 W/m 0,0 km/h (0 Bft) 100,00 %
03.04.2019 08:14 6,4 C 5,6 C 5,0 C 94 % 1000,7 hPa 0,0 l/m 0 min 2 min 21 W/m 3,2 km/h (1 Bft) 100,00 %
03.04.2019 08:16 6,4 C 5,6 C 5,0 C 94 % 1000,6 hPa 0,0 l/m 0 min 2 min 23 W/m 3,2 km/h (1 Bft) 100,00 %
03.04.2019 08:18 6,4 C 5,6 C 5,0 C 94 % 1000,6 hPa 0,0 l/m 0 min 2 min 25 W/m 0,0 km/h (0 Bft) 100,00 %
03.04.2019 08:20 6,4 C 5,6 C 5,0 C 94 % 1000,7 hPa 0,0 l/m 0 min 2 min 26 W/m 0,0 km/h (0 Bft) 97,87 %
03.04.2019 08:22 6,4 C 5,6 C 5,0 C 94 % 1000,6 hPa 0,2 l/m 0 min 2 min 26 W/m 3,2 km/h (1 Bft) 97,87 %
03.04.2019 08:24 6,4 C 5,6 C 5,0 C 95 % 1000,6 hPa 0,0 l/m 0 min 2 min 25 W/m 3,2 km/h (1 Bft) 95,74 %
03.04.2019 08:26 6,4 C 5,6 C 5,0 C 95 % 1000,6 hPa 0,0 l/m 0 min 2 min 26 W/m 0,0 km/h (0 Bft) 97,83 %
03.04.2019 08:28 6,4 C 5,6 C 5,0 C 95 % 1000,6 hPa 0,0 l/m 0 min 2 min 27 W/m 0,0 km/h (0 Bft) 95,74 %
03.04.2019 08:30 6,4 C 5,6 C 5,0 C 95 % 1000,6 hPa 0,0 l/m 0 min 2 min 29 W/m 3,2 km/h (1 Bft) 97,87 %
03.04.2019 08:32 6,4 C 5,0 C 5,0 C 95 % 1000,6 hPa 0,2 l/m 0 min 2 min 30 W/m 6,4 km/h (2 Bft) 97,87 %
03.04.2019 08:34 6,4 C 5,6 C 5,0 C 95 % 1000,6 hPa 0,0 l/m 0 min 2 min 30 W/m 3,2 km/h (1 Bft) 97,87 %
03.04.2019 08:36 6,4 C 5,0 C 5,0 C 95 % 1000,6 hPa 0,0 l/m 0 min 2 min 29 W/m 6,4 km/h (2 Bft) 96,55 %
03.04.2019 08:38 6,4 C 5,0 C 5,0 C 95 % 1000,6 hPa 0,0 l/m 0 min 2 min 28 W/m 3,2 km/h (1 Bft) 97,14 %
03.04.2019 08:40 6,4 C 5,0 C 5,0 C 95 % 1000,7 hPa 0,0 l/m 0 min 2 min 28 W/m 3,2 km/h (1 Bft) 97,87 %
03.04.2019 08:42 6,4 C 5,0 C 5,0 C 95 % 1000,6 hPa 0,0 l/m 0 min 2 min 30 W/m 0,0 km/h (0 Bft) 95,74 %
03.04.2019 08:44 6,4 C 5,0 C 5,0 C 95 % 1000,7 hPa 0,0 l/m 0 min 2 min 34 W/m 0,0 km/h (0 Bft) 97,87 %
03.04.2019 08:46 6,4 C 5,6 C 5,0 C 95 % 1000,6 hPa 0,0 l/m 0 min 2 min 40 W/m 0,0 km/h (0 Bft) 97,87 %
03.04.2019 08:48 6,4 C 5,6 C 5,0 C 95 % 1000,6 hPa 0,0 l/m 0 min 2 min 47 W/m 0,0 km/h (0 Bft) 97,83 %
03.04.2019 08:50 6,4 C 5,6 C 5,0 C 95 % 1000,6 hPa 0,2 l/m 0 min 2 min 50 W/m 0,0 km/h (0 Bft) 97,87 %
03.04.2019 08:52 6,3 C 5,6 C 5,0 C 95 % 1000,6 hPa 0,0 l/m 0 min 2 min 50 W/m 0,0 km/h (0 Bft) 97,87 %
03.04.2019 08:54 6,4 C 5,6 C 5,0 C 95 % 1000,7 hPa 0,0 l/m 0 min 2 min 48 W/m 3,2 km/h (1 Bft) 97,87 %
03.04.2019 08:56 6,4 C 5,6 C 5,0 C 95 % 1000,6 hPa 0,0 l/m 0 min 2 min 47 W/m 0,0 km/h (0 Bft) 97,87 %
03.04.2019 08:58 6,4 C 5,6 C 5,0 C 95 % 1000,6 hPa 0,0 l/m 0 min 2 min 47 W/m 0,0 km/h (0 Bft) 95,74 %
03.04.2019 09:00 6,4 C 5,6 C 5,0 C 95 % 1000,7 hPa 0,0 l/m 0 min 2 min 50 W/m 0,0 km/h (0 Bft) 97,83 %
03.04.2019 09:02 6,4 C 5,6 C 5,0 C 95 % 1000,6 hPa 0,2 l/m 0 min 2 min 52 W/m 0,0 km/h (0 Bft) 97,87 %
03.04.2019 09:04 6,4 C 5,6 C 5,0 C 95 % 1000,7 hPa 0,0 l/m 0 min 2 min 53 W/m 0,0 km/h (0 Bft) 97,87 %
03.04.2019 09:06 6,4 C 5,6 C 5,0 C 95 % 1000,7 hPa 0,0 l/m 0 min 2 min 53 W/m 0,0 km/h (0 Bft) 100,00 %
03.04.2019 09:08 6,4 C 5,6 C 5,0 C 95 % 1000,7 hPa 0,0 l/m 0 min 2 min 54 W/m 0,0 km/h (0 Bft) 100,00 %
03.04.2019 09:10 6,4 C 5,6 C 5,0 C 95 % 1000,6 hPa 0,0 l/m 0 min 0 min 59 W/m 0,0 km/h (0 Bft) 100,00 %
03.04.2019 09:12 6,4 C 5,6 C 5,0 C 95 % 1000,8 hPa 0,0 l/m 0 min 2 min 62 W/m 0,0 km/h (0 Bft) 97,83 %
03.04.2019 09:14 6,4 C 5,6 C 5,0 C 95 % 1000,7 hPa 0,0 l/m 0 min 0 min 61 W/m 0,0 km/h (0 Bft) 100,00 %
03.04.2019 09:16 6,4 C 5,6 C 5,0 C 95 % 1000,7 hPa 0,0 l/m 0 min 0 min 59 W/m 0,0 km/h (0 Bft) 100,00 %
03.04.2019 09:18 6,4 C 5,6 C 5,0 C 95 % 1000,7 hPa 0,0 l/m 0 min 0 min 64 W/m 0,0 km/h (0 Bft) 100,00 %
03.04.2019 09:20 6,4 C 5,6 C 5,0 C 95 % 1000,7 hPa 0,0 l/m 0 min 0 min 69 W/m 0,0 km/h (0 Bft) 100,00 %
03.04.2019 09:22 6,4 C 5,6 C 5,0 C 95 % 1000,7 hPa 0,0 l/m 0 min 0 min 75 W/m 0,0 km/h (0 Bft) 100,00 %
03.04.2019 09:24 6,4 C 5,6 C 5,0 C 95 % 1000,7 hPa 0,0 l/m 0 min 0 min 76 W/m 0,0 km/h (0 Bft) 97,83 %
03.04.2019 09:26 6,4 C 5,6 C 5,0 C 95 % 1000,6 hPa 0,0 l/m 0 min 0 min 74 W/m 0,0 km/h (0 Bft) 97,87 %
03.04.2019 09:28 6,4 C 5,6 C 5,6 C 95 % 1000,5 hPa 0,0 l/m 0 min 0 min 72 W/m 0,0 km/h (0 Bft) 97,87 %
03.04.2019 09:30 6,4 C 5,6 C 5,6 C 95 % 1000,5 hPa 0,0 l/m 0 min 0 min 69 W/m 0,0 km/h (0 Bft) 93,62 %
03.04.2019 09:32 6,4 C 5,6 C 5,6 C 95 % 1000,4 hPa 0,0 l/m 0 min 0 min 70 W/m 0,0 km/h (0 Bft) 95,74 %
03.04.2019 09:34 6,4 C 6,1 C 5,6 C 95 % 1000,4 hPa 0,0 l/m 0 min 0 min 77 W/m 0,0 km/h (0 Bft) 95,74 %
03.04.2019 09:36 6,4 C 6,1 C 5,6 C 95 % 1000,3 hPa 0,0 l/m 0 min 0 min 83 W/m 0,0 km/h (0 Bft) 96,55 %
03.04.2019 09:38 6,4 C 6,1 C 5,6 C 95 % 1000,3 hPa 0,0 l/m 0 min 0 min 78 W/m 0,0 km/h (0 Bft) 97,14 %
03.04.2019 09:40 6,4 C 6,1 C 5,6 C 95 % 1000,3 hPa 0,0 l/m 0 min 0 min 75 W/m 0,0 km/h (0 Bft) 95,74 %
03.04.2019 09:42 6,4 C 6,1 C 5,6 C 95 % 1000,4 hPa 0,0 l/m 0 min 0 min 76 W/m 3,2 km/h (1 Bft) 97,87 %
03.04.2019 09:44 6,4 C 5,6 C 5,6 C 95 % 1000,4 hPa 0,0 l/m 0 min 0 min 76 W/m 3,2 km/h (1 Bft) 91,49 %
03.04.2019 09:46 6,4 C 5,6 C 5,6 C 95 % 1000,5 hPa 0,0 l/m 0 min 0 min 69 W/m 3,2 km/h (1 Bft) 95,65 %
03.04.2019 09:48 6,5 C 5,6 C 5,6 C 95 % 1000,5 hPa 0,0 l/m 0 min 0 min 60 W/m 3,2 km/h (1 Bft) 95,74 %
03.04.2019 09:50 6,4 C 5,6 C 5,6 C 95 % 1000,6 hPa 0,0 l/m 0 min 0 min 56 W/m 3,2 km/h (1 Bft) 95,74 %
03.04.2019 09:52 6,5 C 5,6 C 5,0 C 95 % 1000,7 hPa 0,0 l/m 0 min 0 min 54 W/m 3,2 km/h (1 Bft) 93,62 %
03.04.2019 09:54 6,4 C 5,6 C 5,0 C 95 % 1000,7 hPa 0,0 l/m 0 min 0 min 50 W/m 0,0 km/h (0 Bft) 95,74 %
03.04.2019 09:56 6,4 C 5,6 C 5,0 C 95 % 1000,7 hPa 0,0 l/m 0 min 0 min 47 W/m 0,0 km/h (0 Bft) 95,74 %
03.04.2019 09:58 6,4 C 5,6 C 5,0 C 95 % 1000,8 hPa 0,0 l/m 0 min 0 min 47 W/m 0,0 km/h (0 Bft) 93,62 %
03.04.2019 10:00 6,4 C 5,6 C 5,0 C 95 % 1000,8 hPa 0,0 l/m 0 min 0 min 45 W/m 0,0 km/h (0 Bft) 95,65 %
03.04.2019 10:02 6,4 C 5,6 C 5,0 C 95 % 1000,8 hPa 0,0 l/m 0 min 0 min 41 W/m 0,0 km/h (0 Bft) 95,74 %
03.04.2019 10:04 6,4 C 5,6 C 5,0 C 95 % 1000,8 hPa 0,0 l/m 0 min 0 min 38 W/m 3,2 km/h (1 Bft) 95,74 %
03.04.2019 10:06 6,4 C 5,6 C 5,0 C 95 % 1000,7 hPa 0,0 l/m 0 min 0 min 40 W/m 3,2 km/h (1 Bft) 93,10 %
03.04.2019 10:08 6,4 C 5,6 C 5,0 C 95 % 1000,8 hPa 0,0 l/m 0 min 0 min 44 W/m 3,2 km/h (1 Bft) 94,44 %
03.04.2019 10:10 6,4 C 5,6 C 5,0 C 95 % 1000,7 hPa 0,0 l/m 0 min 0 min 46 W/m 0,0 km/h (0 Bft) 95,74 %
03.04.2019 10:12 6,4 C 5,6 C 5,6 C 95 % 1000,7 hPa 0,0 l/m 0 min 0 min 47 W/m 0,0 km/h (0 Bft) 95,74 %
03.04.2019 10:14 6,4 C 5,6 C 5,6 C 95 % 1000,7 hPa 0,0 l/m 0 min 0 min 46 W/m 0,0 km/h (0 Bft) 93,62 %
03.04.2019 10:16 6,4 C 5,6 C 5,6 C 95 % 1000,7 hPa 0,0 l/m 0 min 0 min 44 W/m 0,0 km/h (0 Bft) 95,74 %
03.04.2019 10:18 6,4 C 5,6 C 5,6 C 95 % 1000,7 hPa 0,0 l/m 0 min 0 min 40 W/m 0,0 km/h (0 Bft) 93,62 %
03.04.2019 10:20 6,4 C 5,6 C 5,6 C 95 % 1000,6 hPa 0,0 l/m 0 min 0 min 49 W/m 0,0 km/h (0 Bft) 95,74 %
03.04.2019 10:22 6,4 C 5,6 C 5,6 C 95 % 1000,6 hPa 0,0 l/m 0 min 0 min 59 W/m 3,2 km/h (1 Bft) 97,83 %
03.04.2019 10:24 6,4 C 5,6 C 5,6 C 95 % 1000,6 hPa 0,0 l/m 0 min 0 min 68 W/m 0,0 km/h (0 Bft) 97,87 %
03.04.2019 10:26 6,4 C 6,1 C 5,6 C 95 % 1000,6 hPa 0,0 l/m 0 min 0 min 76 W/m 3,2 km/h (1 Bft) 97,87 %
03.04.2019 10:28 6,4 C 5,6 C 5,6 C 95 % 1000,6 hPa 0,0 l/m 0 min 0 min 72 W/m 3,2 km/h (1 Bft) 97,87 %
03.04.2019 10:30 6,4 C 5,6 C 5,6 C 95 % 1000,6 hPa 0,0 l/m 0 min 0 min 59 W/m 0,0 km/h (0 Bft) 97,87 %
03.04.2019 10:32 6,4 C 5,6 C 5,6 C 95 % 1000,7 hPa 0,0 l/m 0 min 0 min 53 W/m 0,0 km/h (0 Bft) 97,87 %
03.04.2019 10:34 6,4 C 5,6 C 5,6 C 95 % 1000,6 hPa 0,0 l/m 0 min 0 min 51 W/m 0,0 km/h (0 Bft) 100,00 %
03.04.2019 10:36 6,4 C 5,6 C 5,6 C 95 % 1000,6 hPa 0,0 l/m 0 min 0 min 48 W/m 0,0 km/h (0 Bft) 100,00 %
03.04.2019 10:38 6,4 C 5,6 C 5,6 C 95 % 1000,6 hPa 0,0 l/m 0 min 0 min 45 W/m 0,0 km/h (0 Bft) 100,00 %
03.04.2019 10:40 6,4 C 5,6 C 5,0 C 95 % 1000,6 hPa 0,0 l/m 0 min 0 min 45 W/m 3,2 km/h (1 Bft) 100,00 %
03.04.2019 10:42 6,4 C 5,6 C 5,6 C 95 % 1000,6 hPa 0,0 l/m 0 min 0 min 48 W/m 0,0 km/h (0 Bft) 100,00 %
03.04.2019 10:44 6,4 C 5,6 C 5,6 C 95 % 1000,5 hPa 0,0 l/m 0 min 0 min 49 W/m 3,2 km/h (1 Bft) 100,00 %
03.04.2019 10:46 6,4 C 5,6 C 5,0 C 95 % 1000,6 hPa 0,0 l/m 0 min 0 min 50 W/m 6,4 km/h (2 Bft) 100,00 %
03.04.2019 10:48 6,4 C 5,6 C 5,0 C 95 % 1000,6 hPa 0,0 l/m 0 min 0 min 49 W/m 6,4 km/h (2 Bft) 100,00 %
03.04.2019 10:50 6,4 C 5,6 C 5,0 C 95 % 1000,7 hPa 0,0 l/m 0 min 0 min 49 W/m 0,0 km/h (0 Bft) 100,00 %
03.04.2019 10:52 6,4 C 5,6 C 5,0 C 95 % 1000,6 hPa 0,0 l/m 0 min 0 min 49 W/m 3,2 km/h (1 Bft) 100,00 %
03.04.2019 10:54 6,4 C 5,6 C 5,0 C 95 % 1000,7 hPa 0,0 l/m 0 min 0 min 53 W/m 3,2 km/h (1 Bft) 97,87 %
03.04.2019 10:56 6,4 C 5,6 C 5,0 C 95 % 1000,7 hPa 0,0 l/m 0 min 0 min 55 W/m 3,2 km/h (1 Bft) 97,83 %
03.04.2019 10:58 6,4 C 5,6 C 5,6 C 95 % 1000,6 hPa 0,0 l/m 0 min 0 min 54 W/m 0,0 km/h (0 Bft) 97,87 %
03.04.2019 11:00 6,4 C 5,6 C 5,6 C 95 % 1000,6 hPa 0,0 l/m 0 min 0 min 56 W/m 0,0 km/h (0 Bft) 95,74 %
03.04.2019 11:02 6,4 C 5,6 C 5,6 C 95 % 1000,6 hPa 0,0 l/m 0 min 0 min 56 W/m 0,0 km/h (0 Bft) 97,87 %
03.04.2019 11:04 6,4 C 5,6 C 5,6 C 95 % 1000,6 hPa 0,0 l/m 0 min 0 min 56 W/m 0,0 km/h (0 Bft) 97,87 %
03.04.2019 11:06 6,4 C 5,6 C 5,0 C 95 % 1000,6 hPa 0,0 l/m 0 min 0 min 57 W/m 0,0 km/h (0 Bft) 97,87 %
03.04.2019 11:08 6,4 C 5,6 C 5,0 C 95 % 1000,6 hPa 0,0 l/m 0 min 0 min 51 W/m 0,0 km/h (0 Bft) 97,83 %
03.04.2019 11:10 6,4 C 5,6 C 5,6 C 95 % 1000,6 hPa 0,0 l/m 0 min 0 min 47 W/m 0,0 km/h (0 Bft) 95,74 %
03.04.2019 11:12 6,4 C 5,6 C 5,6 C 95 % 1000,6 hPa 0,0 l/m 0 min 0 min 46 W/m 0,0 km/h (0 Bft) 97,87 %
03.04.2019 11:14 6,4 C 5,6 C 5,6 C 95 % 1000,7 hPa 0,0 l/m 0 min 0 min 44 W/m 0,0 km/h (0 Bft) 97,87 %
03.04.2019 11:16 6,4 C 5,6 C 5,6 C 95 % 1000,8 hPa 0,0 l/m 0 min 0 min 44 W/m 0,0 km/h (0 Bft) 95,74 %
03.04.2019 11:18 6,4 C 5,6 C 5,0 C 95 % 1000,8 hPa 0,0 l/m 0 min 0 min 40 W/m 0,0 km/h (0 Bft) 97,87 %
03.04.2019 11:20 6,4 C 5,6 C 5,0 C 94 % 1000,9 hPa 0,0 l/m 0 min 0 min 35 W/m 0,0 km/h (0 Bft) 97,87 %
03.04.2019 11:22 6,4 C 5,6 C 5,0 C 94 % 1000,9 hPa 0,0 l/m 0 min 0 min 32 W/m 0,0 km/h (0 Bft) 97,83 %
03.04.2019 11:24 6,4 C 5,6 C 5,0 C 94 % 1000,8 hPa 0,0 l/m 0 min 0 min 34 W/m 0,0 km/h (0 Bft) 97,87 %
03.04.2019 11:26 6,4 C 5,6 C 5,0 C 94 % 1000,9 hPa 0,0 l/m 0 min 0 min 37 W/m 0,0 km/h (0 Bft) 97,87 %
03.04.2019 11:28 6,4 C 5,6 C 5,0 C 94 % 1000,9 hPa 0,0 l/m 0 min 0 min 37 W/m 0,0 km/h (0 Bft) 97,87 %
03.04.2019 11:30 6,4 C 5,6 C 5,0 C 94 % 1000,8 hPa 0,0 l/m 0 min 0 min 38 W/m 0,0 km/h (0 Bft) 97,87 %
03.04.2019 11:32 6,4 C 5,6 C 5,0 C 94 % 1000,8 hPa 0,0 l/m 0 min 0 min 42 W/m 0,0 km/h (0 Bft) 97,83 %
03.04.2019 11:34 6,4 C 5,6 C 5,0 C 94 % 1000,8 hPa 0,0 l/m 0 min 0 min 47 W/m 0,0 km/h (0 Bft) 95,74 %
03.04.2019 11:36 6,4 C 5,6 C 5,0 C 94 % 1000,7 hPa 0,0 l/m 0 min 0 min 53 W/m 0,0 km/h (0 Bft) 100,00 %
03.04.2019 11:38 6,4 C 5,6 C 5,0 C 94 % 1000,7 hPa 0,0 l/m 0 min 0 min 54 W/m 3,2 km/h (1 Bft) 100,00 %
03.04.2019 11:40 6,4 C 5,6 C 5,0 C 94 % 1000,7 hPa 0,0 l/m 0 min 0 min 53 W/m 3,2 km/h (1 Bft) 97,87 %
03.04.2019 11:42 6,4 C 5,6 C 5,0 C 94 % 1000,7 hPa 0,0 l/m 0 min 0 min 52 W/m 0,0 km/h (0 Bft) 97,87 %
03.04.2019 11:44 6,4 C 5,6 C 5,0 C 94 % 1000,7 hPa 0,0 l/m 0 min 0 min 48 W/m 0,0 km/h (0 Bft) 100,00 %
03.04.2019 11:46 6,4 C 5,6 C 5,0 C 94 % 1000,7 hPa 0,0 l/m 0 min 0 min 44 W/m 0,0 km/h (0 Bft) 100,00 %
03.04.2019 11:48 6,4 C 5,6 C 5,0 C 94 % 1000,6 hPa 0,0 l/m 0 min 0 min 38 W/m 0,0 km/h (0 Bft) 97,87 %
03.04.2019 11:50 6,4 C 5,6 C 5,0 C 94 % 1000,6 hPa 0,0 l/m 0 min 0 min 35 W/m 0,0 km/h (0 Bft) 100,00 %
03.04.2019 11:52 6,5 C 5,6 C 5,0 C 94 % 1000,6 hPa 0,0 l/m 0 min 0 min 39 W/m 0,0 km/h (0 Bft) 100,00 %
03.04.2019 11:54 6,5 C 5,6 C 5,0 C 94 % 1000,6 hPa 0,0 l/m 0 min 0 min 46 W/m 6,4 km/h (2 Bft) 100,00 %
03.04.2019 11:56 6,5 C 5,6 C 5,0 C 94 % 1000,4 hPa 0,0 l/m 0 min 0 min 55 W/m 0,0 km/h (0 Bft) 97,83 %
03.04.2019 11:58 6,5 C 5,6 C 5,0 C 94 % 1000,4 hPa 0,0 l/m 0 min 0 min 60 W/m 3,2 km/h (1 Bft) 100,00 %
03.04.2019 12:00 6,5 C 5,6 C 5,0 C 94 % 1000,4 hPa 0,0 l/m 0 min 0 min 56 W/m 0,0 km/h (0 Bft) 100,00 %
03.04.2019 12:02 6,5 C 5,6 C 5,0 C 94 % 1000,3 hPa 0,0 l/m 0 min 0 min 53 W/m 0,0 km/h (0 Bft) 100,00 %
03.04.2019 12:04 6,5 C 5,6 C 5,0 C 94 % 1000,3 hPa 0,0 l/m 0 min 0 min 58 W/m 3,2 km/h (1 Bft) 95,74 %
03.04.2019 12:07 6,5 C 5,6 C 5,0 C 94 % 1000,2 hPa 0,0 l/m 0 min 0 min 65 W/m 0,0 km/h (0 Bft) 100,00 %
03.04.2019 12:08 6,5 C 5,6 C 5,0 C 94 % 1000,2 hPa 0,0 l/m 0 min 0 min 67 W/m 6,4 km/h (2 Bft) 100,00 %
03.04.2019 12:10 6,5 C 5,6 C 5,0 C 94 % 1000,2 hPa 0,0 l/m 0 min 0 min 67 W/m 6,4 km/h (2 Bft) 97,87 %
03.04.2019 12:12 6,5 C 5,0 C 5,0 C 94 % 1000,3 hPa 0,0 l/m 0 min 0 min 59 W/m 3,2 km/h (1 Bft) 100,00 %
03.04.2019 12:14 6,4 C 5,6 C 5,0 C 94 % 1000,2 hPa 0,0 l/m 0 min 0 min 55 W/m 3,2 km/h (1 Bft) 100,00 %
03.04.2019 12:16 6,4 C 5,6 C 5,0 C 94 % 1000,2 hPa 0,0 l/m 0 min 0 min 62 W/m 0,0 km/h (0 Bft) 100,00 %
03.04.2019 12:18 6,4 C 5,6 C 5,6 C 94 % 1000,1 hPa 0,0 l/m 0 min 0 min 62 W/m 0,0 km/h (0 Bft) 100,00 %
03.04.2019 12:20 6,5 C 5,6 C 5,6 C 94 % 1000,2 hPa 0,0 l/m 0 min 0 min 61 W/m 0,0 km/h (0 Bft) 97,83 %
03.04.2019 12:22 6,5 C 5,6 C 5,6 C 94 % 1000,2 hPa 0,0 l/m 0 min 0 min 62 W/m 0,0 km/h (0 Bft) 100,00 %
03.04.2019 12:24 6,5 C 6,1 C 5,6 C 94 % 1000,2 hPa 0,0 l/m 0 min 0 min 81 W/m 0,0 km/h (0 Bft) 97,87 %
03.04.2019 12:26 6,6 C 6,1 C 5,6 C 94 % 1000,3 hPa 0,0 l/m 0 min 0 min 85 W/m 0,0 km/h (0 Bft) 97,87 %
03.04.2019 12:28 6,6 C 6,1 C 5,6 C 94 % 1000,3 hPa 0,0 l/m 0 min 0 min 78 W/m 0,0 km/h (0 Bft) 95,74 %
03.04.2019 12:30 6,6 C 6,1 C 5,6 C 94 % 1000,3 hPa 0,0 l/m 0 min 0 min 86 W/m 0,0 km/h (0 Bft) 97,83 %
03.04.2019 12:32 6,6 C 6,1 C 5,6 C 94 % 1000,3 hPa 0,0 l/m 0 min 0 min 118 W/m 0,0 km/h (0 Bft) 97,87 %
03.04.2019 12:34 6,6 C 6,1 C 6,1 C 94 % 1000,2 hPa 0,0 l/m 0 min 0 min 150 W/m 0,0 km/h (0 Bft) 97,87 %
03.04.2019 12:36 6,6 C 6,1 C 6,1 C 94 % 1000,3 hPa 0,0 l/m 0 min 0 min 156 W/m 0,0 km/h (0 Bft) 98,31 %
03.04.2019 12:38 6,7 C 6,1 C 6,1 C 94 % 1000,4 hPa 0,0 l/m 0 min 0 min 152 W/m 3,2 km/h (1 Bft) 97,14 %
03.04.2019 12:40 6,7 C 6,1 C 6,1 C 94 % 1000,3 hPa 0,0 l/m 0 min 0 min 145 W/m 6,4 km/h (2 Bft) 97,87 %
03.04.2019 12:42 6,7 C 6,1 C 5,6 C 94 % 1000,3 hPa 0,0 l/m 0 min 0 min 144 W/m 0,0 km/h (0 Bft) 97,83 %
03.04.2019 12:44 6,7 C 6,1 C 6,1 C 94 % 1000,2 hPa 0,0 l/m 0 min 0 min 157 W/m 3,2 km/h (1 Bft) 95,74 %
03.04.2019 12:46 6,7 C 6,1 C 6,1 C 94 % 1000,2 hPa 0,0 l/m 0 min 0 min 164 W/m 3,2 km/h (1 Bft) 93,62 %
03.04.2019 12:48 6,7 C 6,7 C 6,1 C 94 % 1000,2 hPa 0,0 l/m 0 min 0 min 174 W/m 0,0 km/h (0 Bft) 95,74 %
03.04.2019 12:50 6,8 C 6,7 C 6,7 C 94 % 1000,2 hPa 0,0 l/m 0 min 0 min 179 W/m 0,0 km/h (0 Bft) 95,74 %
03.04.2019 12:52 6,8 C 6,7 C 6,1 C 94 % 1000,2 hPa 0,0 l/m 0 min 0 min 182 W/m 0,0 km/h (0 Bft) 95,74 %
03.04.2019 12:54 6,8 C 6,7 C 6,1 C 94 % 1000,1 hPa 0,0 l/m 0 min 0 min 185 W/m 0,0 km/h (0 Bft) 93,48 %
03.04.2019 12:56 6,8 C 7,2 C 6,7 C 94 % 1000,1 hPa 0,0 l/m 0 min 0 min 209 W/m 0,0 km/h (0 Bft) 95,74 %
03.04.2019 12:58 6,8 C 7,2 C 6,7 C 94 % 1000,1 hPa 0,0 l/m 0 min 0 min 212 W/m 6,4 km/h (2 Bft) 93,62 %
03.04.2019 13:00 6,9 C 7,2 C 6,7 C 94 % 1000,1 hPa 0,0 l/m 0 min 0 min 260 W/m 0,0 km/h (0 Bft) 93,62 %
03.04.2019 13:02 6,9 C 8,3 C 7,2 C 94 % 1000,1 hPa 0,0 l/m 2 min 0 min 348 W/m 0,0 km/h (0 Bft) 97,87 %
03.04.2019 13:04 6,9 C 8,3 C 7,8 C 94 % 1000,1 hPa 0,0 l/m 0 min 0 min 332 W/m 0,0 km/h (0 Bft) 95,74 %
03.04.2019 13:06 7,0 C 7,8 C 7,8 C 94 % 1000,1 hPa 0,0 l/m 0 min 0 min 304 W/m 6,4 km/h (2 Bft) 95,65 %
03.04.2019 13:08 7,1 C 8,3 C 7,8 C 94 % 1000,1 hPa 0,0 l/m 0 min 0 min 284 W/m 3,2 km/h (1 Bft) 97,87 %
03.04.2019 13:10 7,2 C 8,3 C 7,8 C 94 % 1000,1 hPa 0,0 l/m 0 min 0 min 254 W/m 0,0 km/h (0 Bft) 97,87 %
03.04.2019 13:12 7,2 C 7,2 C 7,2 C 94 % 1000,0 hPa 0,0 l/m 0 min 0 min 258 W/m 6,4 km/h (2 Bft) 97,87 %
03.04.2019 13:14 7,3 C 7,8 C 7,2 C 94 % 1000,0 hPa 0,0 l/m 0 min 0 min 310 W/m 3,2 km/h (1 Bft) 97,87 %
03.04.2019 13:16 7,3 C 7,8 C 7,8 C 94 % 1000,0 hPa 0,0 l/m 0 min 0 min 298 W/m 3,2 km/h (1 Bft) 97,83 %
03.04.2019 13:18 7,4 C 7,8 C 7,8 C 94 % 999,9 hPa 0,0 l/m 0 min 0 min 256 W/m 3,2 km/h (1 Bft) 97,87 %
03.04.2019 13:20 7,4 C 7,8 C 7,8 C 94 % 1000,0 hPa 0,0 l/m 0 min 0 min 249 W/m 3,2 km/h (1 Bft) 97,87 %
03.04.2019 13:22 7,5 C 7,2 C 7,2 C 94 % 1000,0 hPa 0,0 l/m 0 min 0 min 211 W/m 3,2 km/h (1 Bft) 97,87 %
03.04.2019 13:24 7,6 C 7,8 C 7,2 C 94 % 1000,0 hPa 0,0 l/m 0 min 0 min 177 W/m 3,2 km/h (1 Bft) 97,87 %
03.04.2019 13:26 7,6 C 7,8 C 7,2 C 94 % 1000,1 hPa 0,0 l/m 0 min 0 min 166 W/m 0,0 km/h (0 Bft) 95,74 %
03.04.2019 13:28 7,7 C 7,2 C 7,2 C 94 % 1000,0 hPa 0,0 l/m 0 min 0 min 169 W/m 0,0 km/h (0 Bft) 95,65 %
03.04.2019 13:30 7,7 C 7,2 C 7,2 C 93 % 999,9 hPa 0,0 l/m 0 min 0 min 170 W/m 6,4 km/h (2 Bft) 95,74 %
03.04.2019 13:32 7,7 C 7,2 C 7,2 C 93 % 999,9 hPa 0,0 l/m 0 min 0 min 167 W/m 0,0 km/h (0 Bft) 97,87 %
03.04.2019 13:34 7,7 C 7,2 C 7,2 C 93 % 999,8 hPa 0,0 l/m 0 min 0 min 168 W/m 0,0 km/h (0 Bft) 95,74 %
03.04.2019 13:36 7,7 C 7,2 C 7,2 C 93 % 999,9 hPa 0,0 l/m 0 min 0 min 152 W/m 0,0 km/h (0 Bft) 95,74 %
03.04.2019 13:38 7,8 C 7,2 C 7,2 C 93 % 999,8 hPa 0,0 l/m 0 min 0 min 136 W/m 3,2 km/h (1 Bft) 97,87 %
03.04.2019 13:40 7,8 C 7,2 C 7,2 C 93 % 999,8 hPa 0,0 l/m 0 min 0 min 134 W/m 6,4 km/h (2 Bft) 97,83 %
03.04.2019 13:42 7,8 C 7,2 C 7,2 C 92 % 999,7 hPa 0,0 l/m 0 min 0 min 152 W/m 3,2 km/h (1 Bft) 95,74 %
03.04.2019 13:44 7,8 C 7,2 C 7,2 C 92 % 999,7 hPa 0,0 l/m 0 min 0 min 175 W/m 3,2 km/h (1 Bft) 95,74 %
03.04.2019 13:46 7,8 C 7,2 C 7,2 C 92 % 999,6 hPa 0,0 l/m 0 min 0 min 205 W/m 0,0 km/h (0 Bft) 97,87 %
03.04.2019 13:48 7,9 C 7,8 C 7,8 C 92 % 999,5 hPa 0,0 l/m 0 min 0 min 232 W/m 3,2 km/h (1 Bft) 97,87 %
03.04.2019 13:50 7,9 C 7,8 C 7,8 C 92 % 999,5 hPa 0,0 l/m 0 min 0 min 263 W/m 6,4 km/h (2 Bft) 97,87 %
03.04.2019 13:52 7,9 C 7,8 C 7,2 C 92 % 999,4 hPa 0,0 l/m 0 min 0 min 288 W/m 6,4 km/h (2 Bft) 97,83 %
03.04.2019 13:54 7,9 C 7,8 C 7,2 C 92 % 999,5 hPa 0,0 l/m 0 min 0 min 300 W/m 9,7 km/h (2 Bft) 95,74 %
03.04.2019 13:56 7,9 C 7,8 C 7,8 C 91 % 999,6 hPa 0,0 l/m 0 min 0 min 306 W/m 6,4 km/h (2 Bft) 97,87 %
03.04.2019 13:58 7,9 C 7,8 C 7,8 C 91 % 999,5 hPa 0,0 l/m 0 min 0 min 305 W/m 3,2 km/h (1 Bft) 97,87 %
03.04.2019 14:00 8,0 C 8,3 C 7,8 C 91 % 999,5 hPa 0,0 l/m 0 min 0 min 315 W/m 3,2 km/h (1 Bft) 97,87 %
03.04.2019 14:02 8,1 C 8,3 C 7,8 C 91 % 999,5 hPa 0,0 l/m 0 min 0 min 310 W/m 0,0 km/h (0 Bft) 97,87 %
03.04.2019 14:04 8,1 C 8,3 C 7,8 C 91 % 999,5 hPa 0,0 l/m 0 min 0 min 299 W/m 6,4 km/h (2 Bft) 97,83 %
03.04.2019 14:06 8,2 C 8,3 C 8,3 C 91 % 999,5 hPa 0,0 l/m 0 min 0 min 303 W/m 9,7 km/h (2 Bft) 100,00 %
03.04.2019 14:08 8,2 C 8,3 C 8,3 C 91 % 999,5 hPa 0,0 l/m 0 min 0 min 315 W/m 6,4 km/h (2 Bft) 97,87 %
03.04.2019 14:10 8,2 C 8,3 C 8,3 C 91 % 999,5 hPa 0,0 l/m 0 min 0 min 317 W/m 6,4 km/h (2 Bft) 100,00 %
03.04.2019 14:12 8,3 C 8,3 C 8,3 C 90 % 999,6 hPa 0,0 l/m 0 min 0 min 310 W/m 6,4 km/h (2 Bft) 97,87 %
03.04.2019 14:14 8,3 C 9,4 C 8,3 C 90 % 999,6 hPa 0,0 l/m 0 min 0 min 299 W/m 3,2 km/h (1 Bft) 100,00 %
03.04.2019 14:16 8,4 C 8,9 C 8,3 C 90 % 999,6 hPa 0,0 l/m 0 min 0 min 289 W/m 9,7 km/h (2 Bft) 93,48 %
03.04.2019 14:18 8,4 C 8,3 C 8,3 C 90 % 999,6 hPa 0,0 l/m 0 min 0 min 281 W/m 12,9 km/h (3 Bft) 100,00 %
03.04.2019 14:20 8,5 C 8,3 C 7,8 C 89 % 999,6 hPa 0,0 l/m 0 min 0 min 282 W/m 16,1 km/h (3 Bft) 100,00 %
03.04.2019 14:22 8,6 C 8,3 C 8,3 C 89 % 999,6 hPa 0,0 l/m 0 min 0 min 286 W/m 12,9 km/h (3 Bft) 100,00 %
03.04.2019 14:24 8,6 C 8,3 C 8,3 C 89 % 999,5 hPa 0,0 l/m 0 min 0 min 293 W/m 9,7 km/h (2 Bft) 100,00 %
03.04.2019 14:26 8,6 C 8,3 C 8,3 C 88 % 999,5 hPa 0,0 l/m 0 min 0 min 304 W/m 9,7 km/h (2 Bft) 97,83 %
03.04.2019 14:28 8,7 C 8,9 C 8,3 C 88 % 999,4 hPa 0,0 l/m 0 min 0 min 329 W/m 9,7 km/h (2 Bft) 100,00 %
03.04.2019 14:30 8,7 C 8,9 C 8,3 C 88 % 999,4 hPa 0,0 l/m 0 min 0 min 332 W/m 16,1 km/h (3 Bft) 100,00 %
03.04.2019 14:32 8,7 C 8,9 C 8,3 C 87 % 999,4 hPa 0,0 l/m 0 min 0 min 325 W/m 22,5 km/h (4 Bft) 100,00 %
03.04.2019 14:34 8,8 C 8,9 C 8,3 C 87 % 999,6 hPa 0,0 l/m 0 min 0 min 316 W/m 12,9 km/h (3 Bft) 100,00 %
03.04.2019 14:36 8,8 C 9,4 C 8,3 C 87 % 999,6 hPa 0,0 l/m 0 min 0 min 310 W/m 9,7 km/h (2 Bft) 100,00 %
03.04.2019 14:38 8,9 C 9,4 C 8,9 C 86 % 999,6 hPa 0,0 l/m 0 min 0 min 311 W/m 9,7 km/h (2 Bft) 95,65 %
03.04.2019 14:40 8,9 C 9,4 C 8,9 C 86 % 999,6 hPa 0,0 l/m 0 min 0 min 301 W/m 12,9 km/h (3 Bft) 100,00 %
03.04.2019 14:42 9,0 C 9,4 C 8,9 C 86 % 999,5 hPa 0,0 l/m 0 min 0 min 289 W/m 9,7 km/h (2 Bft) 97,87 %
03.04.2019 14:44 9,1 C 10,0 C 8,9 C 85 % 999,5 hPa 0,0 l/m 0 min 0 min 286 W/m 9,7 km/h (2 Bft) 97,87 %
03.04.2019 14:46 9,1 C 10,0 C 8,3 C 85 % 999,4 hPa 0,0 l/m 0 min 0 min 290 W/m 22,5 km/h (4 Bft) 93,62 %
03.04.2019 14:48 9,2 C 10,6 C 8,3 C 84 % 999,3 hPa 0,0 l/m 0 min 0 min 285 W/m 12,9 km/h (3 Bft) 100,00 %
03.04.2019 14:50 9,2 C 10,6 C 8,9 C 84 % 999,3 hPa 0,0 l/m 0 min 0 min 288 W/m 9,7 km/h (2 Bft) 100,00 %
03.04.2019 14:52 9,3 C 10,6 C 8,9 C 84 % 999,3 hPa 0,0 l/m 0 min 0 min 295 W/m 16,1 km/h (3 Bft) 97,87 %
03.04.2019 14:54 9,3 C 10,6 C 8,3 C 84 % 999,3 hPa 0,0 l/m 0 min 0 min 281 W/m 16,1 km/h (3 Bft) 95,74 %
03.04.2019 14:56 9,3 C 10,0 C 8,3 C 83 % 999,4 hPa 0,0 l/m 0 min 0 min 258 W/m 9,7 km/h (2 Bft) 95,74 %
03.04.2019 14:58 9,3 C 10,0 C 8,3 C 82 % 999,4 hPa 0,0 l/m 0 min 0 min 239 W/m 9,7 km/h (2 Bft) 97,87 %
03.04.2019 15:00 9,4 C 10,0 C 8,3 C 82 % 999,3 hPa 0,0 l/m 0 min 0 min 229 W/m 9,7 km/h (2 Bft) 97,87 %
03.04.2019 15:02 9,4 C 10,0 C 8,3 C 82 % 999,2 hPa 0,0 l/m 0 min 0 min 227 W/m 6,4 km/h (2 Bft) 97,83 %
03.04.2019 15:04 9,4 C 10,0 C 8,3 C 82 % 999,0 hPa 0,0 l/m 0 min 0 min 230 W/m 19,3 km/h (3 Bft) 97,87 %
03.04.2019 15:06 9,4 C 10,0 C 8,3 C 82 % 998,9 hPa 0,0 l/m 0 min 0 min 232 W/m 9,7 km/h (2 Bft) 97,87 %
03.04.2019 15:08 9,5 C 10,0 C 8,3 C 82 % 998,8 hPa 0,0 l/m 0 min 0 min 224 W/m 6,4 km/h (2 Bft) 97,87 %
03.04.2019 15:10 9,5 C 10,6 C 8,9 C 82 % 998,6 hPa 0,0 l/m 0 min 0 min 239 W/m 9,7 km/h (2 Bft) 100,00 %
03.04.2019 15:12 9,6 C 11,1 C 8,9 C 82 % 998,5 hPa 0,0 l/m 0 min 0 min 305 W/m 6,4 km/h (2 Bft) 100,00 %
03.04.2019 15:14 9,6 C 11,1 C 9,4 C 82 % 998,5 hPa 0,0 l/m 2 min 0 min 349 W/m 9,7 km/h (2 Bft) 95,65 %
03.04.2019 15:16 9,6 C 10,6 C 8,9 C 82 % 998,6 hPa 0,0 l/m 0 min 0 min 307 W/m 16,1 km/h (3 Bft) 91,49 %
03.04.2019 15:18 9,7 C 11,1 C 8,9 C 82 % 998,7 hPa 0,0 l/m 0 min 0 min 251 W/m 9,7 km/h (2 Bft) 97,87 %
03.04.2019 15:20 9,7 C 10,6 C 8,9 C 82 % 998,8 hPa 0,0 l/m 0 min 0 min 212 W/m 9,7 km/h (2 Bft) 97,87 %
03.04.2019 15:22 9,7 C 10,0 C 8,9 C 82 % 998,7 hPa 0,0 l/m 0 min 0 min 180 W/m 9,7 km/h (2 Bft) 97,87 %
03.04.2019 15:24 9,7 C 10,0 C 8,3 C 81 % 998,8 hPa 0,0 l/m 0 min 0 min 157 W/m 9,7 km/h (2 Bft) 97,87 %
03.04.2019 15:26 9,7 C 10,0 C 8,3 C 81 % 998,8 hPa 0,0 l/m 0 min 0 min 146 W/m 16,1 km/h (3 Bft) 95,65 %
03.04.2019 15:28 9,7 C 10,0 C 8,3 C 80 % 998,9 hPa 0,0 l/m 0 min 0 min 141 W/m 16,1 km/h (3 Bft) 95,74 %
03.04.2019 15:30 9,7 C 10,0 C 8,3 C 80 % 998,9 hPa 0,0 l/m 0 min 0 min 140 W/m 16,1 km/h (3 Bft) 95,74 %
03.04.2019 15:32 9,7 C 10,0 C 8,3 C 80 % 998,9 hPa 0,0 l/m 0 min 0 min 143 W/m 9,7 km/h (2 Bft) 95,74 %
03.04.2019 15:34 9,7 C 10,0 C 8,3 C 80 % 998,9 hPa 0,0 l/m 0 min 0 min 146 W/m 6,4 km/h (2 Bft) 95,74 %
03.04.2019 15:36 9,7 C 10,0 C 8,3 C 80 % 998,9 hPa 0,0 l/m 0 min 0 min 141 W/m 6,4 km/h (2 Bft) 93,62 %
03.04.2019 15:38 9,7 C 10,0 C 8,3 C 80 % 998,8 hPa 0,0 l/m 0 min 0 min 134 W/m 9,7 km/h (2 Bft) 93,48 %
03.04.2019 15:40 9,8 C 10,0 C 8,3 C 79 % 998,8 hPa 0,0 l/m 0 min 0 min 141 W/m 9,7 km/h (2 Bft) 95,74 %
03.04.2019 15:42 9,7 C 10,0 C 8,9 C 79 % 998,7 hPa 0,0 l/m 0 min 0 min 167 W/m 9,7 km/h (2 Bft) 95,74 %
03.04.2019 15:44 9,7 C 10,0 C 9,4 C 79 % 998,4 hPa 0,0 l/m 0 min 0 min 209 W/m 9,7 km/h (2 Bft) 93,62 %
03.04.2019 15:46 9,7 C 10,0 C 9,4 C 79 % 998,3 hPa 0,0 l/m 0 min 0 min 231 W/m 9,7 km/h (2 Bft) 89,36 %
03.04.2019 15:48 9,7 C 10,0 C 10,0 C 78 % 998,3 hPa 0,0 l/m 0 min 0 min 224 W/m 6,4 km/h (2 Bft) 93,62 %
03.04.2019 15:50 9,7 C 10,0 C 10,0 C 78 % 998,3 hPa 0,0 l/m 0 min 0 min 214 W/m 9,7 km/h (2 Bft) 93,48 %
03.04.2019 15:52 9,7 C 10,0 C 10,0 C 78 % 998,4 hPa 0,0 l/m 0 min 0 min 205 W/m 9,7 km/h (2 Bft) 91,49 %
03.04.2019 15:54 9,7 C 10,0 C 10,0 C 78 % 998,4 hPa 0,0 l/m 0 min 0 min 191 W/m 9,7 km/h (2 Bft) 91,49 %
03.04.2019 15:56 9,7 C 10,6 C 10,0 C 79 % 998,5 hPa 0,0 l/m 0 min 0 min 179 W/m 12,9 km/h (3 Bft) 93,62 %
03.04.2019 15:58 9,7 C 10,0 C 10,0 C 79 % 998,5 hPa 0,0 l/m 0 min 0 min 167 W/m 12,9 km/h (3 Bft) 93,62 %
03.04.2019 16:00 9,8 C 10,0 C 10,0 C 79 % 998,6 hPa 0,0 l/m 0 min 0 min 155 W/m 9,7 km/h (2 Bft) 95,65 %
03.04.2019 16:02 9,8 C 10,0 C 10,0 C 78 % 998,6 hPa 0,0 l/m 0 min 0 min 143 W/m 9,7 km/h (2 Bft) 93,62 %
03.04.2019 16:04 9,8 C 10,0 C 10,0 C 78 % 998,6 hPa 0,0 l/m 0 min 0 min 130 W/m 9,7 km/h (2 Bft) 93,62 %
03.04.2019 16:06 9,8 C 10,0 C 9,4 C 78 % 998,7 hPa 0,0 l/m 0 min 0 min 123 W/m 9,7 km/h (2 Bft) 91,49 %
03.04.2019 16:08 9,8 C 10,0 C 9,4 C 78 % 998,7 hPa 0,0 l/m 0 min 0 min 110 W/m 12,9 km/h (3 Bft) 95,83 %
03.04.2019 16:10 9,8 C 10,0 C 9,4 C 78 % 998,6 hPa 0,0 l/m 0 min 0 min 109 W/m 12,9 km/h (3 Bft) 95,74 %
03.04.2019 16:12 9,8 C 9,4 C 9,4 C 78 % 998,6 hPa 0,0 l/m 0 min 0 min 108 W/m 9,7 km/h (2 Bft) 91,49 %
03.04.2019 16:14 9,8 C 9,4 C 9,4 C 78 % 998,6 hPa 0,0 l/m 0 min 0 min 103 W/m 6,4 km/h (2 Bft) 95,74 %
03.04.2019 16:16 9,8 C 9,4 C 9,4 C 78 % 998,6 hPa 0,0 l/m 0 min 0 min 99 W/m 12,9 km/h (3 Bft) 95,74 %
03.04.2019 16:18 9,8 C 9,4 C 9,4 C 77 % 998,6 hPa 0,0 l/m 0 min 0 min 95 W/m 9,7 km/h (2 Bft) 97,87 %
03.04.2019 16:20 9,8 C 9,4 C 8,9 C 77 % 998,6 hPa 0,0 l/m 0 min 0 min 93 W/m 16,1 km/h (3 Bft) 95,65 %
03.04.2019 16:22 9,8 C 9,4 C 9,4 C 77 % 998,5 hPa 0,0 l/m 0 min 0 min 91 W/m 6,4 km/h (2 Bft) 95,74 %
03.04.2019 16:24 9,8 C 9,4 C 9,4 C 77 % 998,5 hPa 0,0 l/m 0 min 0 min 96 W/m 9,7 km/h (2 Bft) 95,74 %
03.04.2019 16:26 9,8 C 9,4 C 9,4 C 77 % 998,5 hPa 0,0 l/m 0 min 0 min 108 W/m 9,7 km/h (2 Bft) 100,00 %
03.04.2019 16:28 9,8 C 9,4 C 9,4 C 77 % 998,5 hPa 0,0 l/m 0 min 0 min 129 W/m 9,7 km/h (2 Bft) 97,87 %
03.04.2019 16:30 9,8 C 10,0 C 9,4 C 77 % 998,5 hPa 0,0 l/m 0 min 0 min 155 W/m 9,7 km/h (2 Bft) 97,87 %
03.04.2019 16:32 9,8 C 10,0 C 9,4 C 77 % 998,5 hPa 0,0 l/m 0 min 0 min 176 W/m 9,7 km/h (2 Bft) 100,00 %
03.04.2019 16:34 9,8 C 10,0 C 10,0 C 77 % 998,5 hPa 0,0 l/m 0 min 0 min 179 W/m 9,7 km/h (2 Bft) 100,00 %
03.04.2019 16:36 9,8 C 10,0 C 10,0 C 78 % 998,5 hPa 0,0 l/m 0 min 0 min 171 W/m 9,7 km/h (2 Bft) 100,00 %
03.04.2019 16:38 9,8 C 10,0 C 10,0 C 78 % 998,4 hPa 0,0 l/m 0 min 0 min 164 W/m 9,7 km/h (2 Bft) 93,62 %
03.04.2019 16:40 9,8 C 10,0 C 10,0 C 77 % 998,4 hPa 0,0 l/m 0 min 0 min 163 W/m 9,7 km/h (2 Bft) 97,87 %
03.04.2019 16:42 9,8 C 10,0 C 10,0 C 77 % 998,4 hPa 0,0 l/m 0 min 0 min 167 W/m 9,7 km/h (2 Bft) 100,00 %
03.04.2019 16:44 9,8 C 10,0 C 10,0 C 77 % 998,4 hPa 0,0 l/m 0 min 0 min 167 W/m 6,4 km/h (2 Bft) 100,00 %
03.04.2019 16:46 9,8 C 10,6 C 10,0 C 78 % 998,4 hPa 0,0 l/m 0 min 0 min 162 W/m 9,7 km/h (2 Bft) 100,00 %
03.04.2019 16:48 9,9 C 10,6 C 10,0 C 78 % 998,4 hPa 0,0 l/m 0 min 0 min 155 W/m 6,4 km/h (2 Bft) 100,00 %
03.04.2019 16:50 9,9 C 10,0 C 10,0 C 78 % 998,4 hPa 0,0 l/m 0 min 0 min 158 W/m 9,7 km/h (2 Bft) 97,87 %
03.04.2019 16:52 9,9 C 10,6 C 10,0 C 77 % 998,5 hPa 0,0 l/m 0 min 0 min 167 W/m 9,7 km/h (2 Bft) 97,87 %
03.04.2019 16:54 9,9 C 10,0 C 10,0 C 77 % 998,5 hPa 0,0 l/m 0 min 0 min 161 W/m 16,1 km/h (3 Bft) 100,00 %
03.04.2019 16:56 9,9 C 10,0 C 10,0 C 77 % 998,4 hPa 0,0 l/m 0 min 0 min 155 W/m 9,7 km/h (2 Bft) 100,00 %
03.04.2019 16:58 9,9 C 10,0 C 10,0 C 76 % 998,4 hPa 0,0 l/m 0 min 0 min 154 W/m 9,7 km/h (2 Bft) 100,00 %
03.04.2019 17:00 9,9 C 10,0 C 10,0 C 75 % 998,4 hPa 0,0 l/m 0 min 0 min 147 W/m 12,9 km/h (3 Bft) 100,00 %
03.04.2019 17:02 9,9 C 10,0 C 10,0 C 74 % 998,3 hPa 0,0 l/m 0 min 0 min 144 W/m 19,3 km/h (3 Bft) 97,87 %
03.04.2019 17:04 9,9 C 10,0 C 10,0 C 74 % 998,2 hPa 0,0 l/m 0 min 0 min 143 W/m 12,9 km/h (3 Bft) 100,00 %
03.04.2019 17:06 9,9 C 10,0 C 9,4 C 73 % 998,2 hPa 0,0 l/m 0 min 0 min 137 W/m 9,7 km/h (2 Bft) 100,00 %
03.04.2019 17:08 9,9 C 10,0 C 9,4 C 73 % 998,1 hPa 0,0 l/m 0 min 0 min 129 W/m 9,7 km/h (2 Bft) 100,00 %
03.04.2019 17:10 9,9 C 10,0 C 9,4 C 73 % 998,2 hPa 0,0 l/m 0 min 0 min 134 W/m 16,1 km/h (3 Bft) 97,87 %
03.04.2019 17:12 9,9 C 10,0 C 9,4 C 72 % 998,1 hPa 0,0 l/m 0 min 0 min 139 W/m 16,1 km/h (3 Bft) 100,00 %
03.04.2019 17:14 9,9 C 10,0 C 9,4 C 72 % 998,2 hPa 0,0 l/m 0 min 0 min 137 W/m 9,7 km/h (2 Bft) 100,00 %
03.04.2019 17:16 9,9 C 10,0 C 9,4 C 73 % 998,1 hPa 0,0 l/m 0 min 0 min 132 W/m 9,7 km/h (2 Bft) 97,87 %
03.04.2019 17:18 9,9 C 10,0 C 9,4 C 73 % 998,0 hPa 0,0 l/m 0 min 0 min 128 W/m 9,7 km/h (2 Bft) 97,87 %
03.04.2019 17:20 9,9 C 10,0 C 9,4 C 73 % 998,0 hPa 0,0 l/m 0 min 0 min 128 W/m 12,9 km/h (3 Bft) 100,00 %
03.04.2019 17:22 10,0 C 10,0 C 9,4 C 73 % 998,0 hPa 0,0 l/m 0 min 0 min 127 W/m 16,1 km/h (3 Bft) 100,00 %
03.04.2019 17:24 10,0 C 10,0 C 9,4 C 73 % 998,1 hPa 0,0 l/m 0 min 0 min 127 W/m 16,1 km/h (3 Bft) 97,87 %
03.04.2019 17:26 10,0 C 10,0 C 9,4 C 73 % 998,3 hPa 0,0 l/m 0 min 0 min 124 W/m 12,9 km/h (3 Bft) 97,87 %
03.04.2019 17:28 10,0 C 10,0 C 9,4 C 73 % 998,4 hPa 0,0 l/m 0 min 0 min 111 W/m 19,3 km/h (3 Bft) 100,00 %
03.04.2019 17:30 9,9 C 10,0 C 9,4 C 73 % 998,3 hPa 0,0 l/m 0 min 0 min 100 W/m 22,5 km/h (4 Bft) 100,00 %
03.04.2019 17:32 9,9 C 9,4 C 9,4 C 73 % 998,4 hPa 0,0 l/m 0 min 0 min 95 W/m 25,7 km/h (4 Bft) 97,87 %
03.04.2019 17:34 9,9 C 9,4 C 9,4 C 72 % 998,4 hPa 0,0 l/m 0 min 0 min 92 W/m 16,1 km/h (3 Bft) 100,00 %
03.04.2019 17:36 9,9 C 9,4 C 9,4 C 72 % 998,5 hPa 0,0 l/m 0 min 0 min 90 W/m 19,3 km/h (3 Bft) 100,00 %
03.04.2019 17:38 9,9 C 9,4 C 8,9 C 72 % 998,4 hPa 0,0 l/m 0 min 0 min 87 W/m 16,1 km/h (3 Bft) 100,00 %
03.04.2019 17:40 9,9 C 9,4 C 8,9 C 72 % 998,4 hPa 0,0 l/m 0 min 0 min 84 W/m 9,7 km/h (2 Bft) 100,00 %
03.04.2019 17:42 9,9 C 9,4 C 8,9 C 72 % 998,5 hPa 0,0 l/m 0 min 0 min 82 W/m 12,9 km/h (3 Bft) 100,00 %
03.04.2019 17:44 9,9 C 9,4 C 8,9 C 72 % 998,4 hPa 0,0 l/m 0 min 0 min 78 W/m 12,9 km/h (3 Bft) 97,87 %
03.04.2019 17:46 9,8 C 9,4 C 8,9 C 72 % 998,4 hPa 0,0 l/m 0 min 0 min 76 W/m 9,7 km/h (2 Bft) 100,00 %
03.04.2019 17:48 9,8 C 9,4 C 8,9 C 72 % 998,3 hPa 0,0 l/m 0 min 0 min 72 W/m 12,9 km/h (3 Bft) 100,00 %
03.04.2019 17:50 9,8 C 9,4 C 8,9 C 72 % 998,3 hPa 0,0 l/m 0 min 0 min 70 W/m 16,1 km/h (3 Bft) 100,00 %
03.04.2019 17:52 9,8 C 9,4 C 8,9 C 72 % 998,2 hPa 0,0 l/m 0 min 0 min 69 W/m 16,1 km/h (3 Bft) 100,00 %
03.04.2019 17:54 9,8 C 9,4 C 8,9 C 72 % 998,2 hPa 0,0 l/m 0 min 0 min 68 W/m 16,1 km/h (3 Bft) 95,65 %
03.04.2019 17:56 9,7 C 9,4 C 8,9 C 72 % 998,2 hPa 0,0 l/m 0 min 0 min 67 W/m 25,7 km/h (4 Bft) 97,87 %
03.04.2019 17:58 9,7 C 9,4 C 8,9 C 72 % 998,2 hPa 0,0 l/m 0 min 0 min 63 W/m 16,1 km/h (3 Bft) 95,74 %
03.04.2019 18:00 9,7 C 9,4 C 8,9 C 72 % 998,3 hPa 0,0 l/m 0 min 0 min 62 W/m 12,9 km/h (3 Bft) 97,87 %
03.04.2019 18:02 9,7 C 9,4 C 8,9 C 72 % 998,3 hPa 0,0 l/m 0 min 0 min 63 W/m 9,7 km/h (2 Bft) 97,87 %
03.04.2019 18:04 9,7 C 9,4 C 8,9 C 73 % 998,2 hPa 0,0 l/m 0 min 0 min 62 W/m 19,3 km/h (3 Bft) 97,87 %
03.04.2019 18:07 9,7 C 8,9 C 8,9 C 73 % 998,3 hPa 0,0 l/m 0 min 0 min 58 W/m 12,9 km/h (3 Bft) 100,00 %
03.04.2019 18:08 9,7 C 8,9 C 8,9 C 73 % 998,3 hPa 0,0 l/m 0 min 0 min 55 W/m 22,5 km/h (4 Bft) 100,00 %
03.04.2019 18:10 9,6 C 8,9 C 8,3 C 73 % 998,4 hPa 0,0 l/m 0 min 0 min 52 W/m 16,1 km/h (3 Bft) 95,74 %
03.04.2019 18:12 9,6 C 8,9 C 8,3 C 74 % 998,3 hPa 0,0 l/m 0 min 0 min 51 W/m 9,7 km/h (2 Bft) 97,87 %
03.04.2019 18:14 9,6 C 8,9 C 8,3 C 73 % 998,2 hPa 0,0 l/m 0 min 0 min 47 W/m 16,1 km/h (3 Bft) 95,74 %
03.04.2019 18:16 9,6 C 8,9 C 8,3 C 74 % 998,2 hPa 0,0 l/m 0 min 0 min 44 W/m 12,9 km/h (3 Bft) 95,74 %
03.04.2019 18:18 9,6 C 8,9 C 8,3 C 74 % 998,2 hPa 0,0 l/m 0 min 0 min 42 W/m 12,9 km/h (3 Bft) 93,48 %
03.04.2019 18:20 9,5 C 8,9 C 8,3 C 74 % 998,2 hPa 0,0 l/m 0 min 0 min 40 W/m 16,1 km/h (3 Bft) 93,62 %
03.04.2019 18:22 9,5 C 8,9 C 8,3 C 74 % 998,2 hPa 0,0 l/m 0 min 0 min 40 W/m 12,9 km/h (3 Bft) 93,62 %
03.04.2019 18:24 9,5 C 8,9 C 8,3 C 74 % 998,1 hPa 0,0 l/m 0 min 0 min 38 W/m 9,7 km/h (2 Bft) 93,62 %
03.04.2019 18:26 9,4 C 8,9 C 8,3 C 74 % 998,0 hPa 0,0 l/m 0 min 0 min 36 W/m 12,9 km/h (3 Bft) 93,62 %
03.04.2019 18:28 9,4 C 8,9 C 8,3 C 74 % 998,0 hPa 0,0 l/m 0 min 0 min 35 W/m 6,4 km/h (2 Bft) 93,62 %
03.04.2019 18:30 9,4 C 8,9 C 8,3 C 75 % 998,0 hPa 0,0 l/m 0 min 0 min 35 W/m 6,4 km/h (2 Bft) 91,30 %
03.04.2019 18:32 9,4 C 8,9 C 8,3 C 75 % 998,0 hPa 0,0 l/m 0 min 0 min 35 W/m 6,4 km/h (2 Bft) 89,36 %
03.04.2019 18:34 9,4 C 8,9 C 8,3 C 75 % 998,0 hPa 0,0 l/m 0 min 0 min 33 W/m 6,4 km/h (2 Bft) 91,49 %
03.04.2019 18:36 9,4 C 8,9 C 8,3 C 75 % 998,1 hPa 0,0 l/m 0 min 0 min 35 W/m 9,7 km/h (2 Bft) 93,62 %
03.04.2019 18:38 9,4 C 8,9 C 8,3 C 76 % 998,1 hPa 0,0 l/m 0 min 0 min 33 W/m 6,4 km/h (2 Bft) 93,62 %
03.04.2019 18:40 9,4 C 8,9 C 8,3 C 76 % 998,1 hPa 0,0 l/m 0 min 0 min 32 W/m 6,4 km/h (2 Bft) 93,62 %
03.04.2019 18:42 9,4 C 8,3 C 8,3 C 77 % 998,1 hPa 0,0 l/m 0 min 0 min 30 W/m 12,9 km/h (3 Bft) 91,30 %
03.04.2019 18:44 9,4 C 8,3 C 8,3 C 77 % 998,0 hPa 0,0 l/m 0 min 0 min 29 W/m 9,7 km/h (2 Bft) 93,62 %
03.04.2019 18:46 9,3 C 8,3 C 7,8 C 77 % 997,9 hPa 0,0 l/m 0 min 0 min 28 W/m 12,9 km/h (3 Bft) 93,62 %
03.04.2019 18:48 9,3 C 8,3 C 7,8 C 77 % 997,9 hPa 0,0 l/m 0 min 0 min 26 W/m 9,7 km/h (2 Bft) 91,49 %
03.04.2019 18:50 9,3 C 8,3 C 7,8 C 77 % 997,9 hPa 0,0 l/m 0 min 0 min 26 W/m 16,1 km/h (3 Bft) 93,62 %
03.04.2019 18:52 9,3 C 8,3 C 7,8 C 77 % 997,9 hPa 0,0 l/m 0 min 0 min 26 W/m 9,7 km/h (2 Bft) 93,48 %
03.04.2019 18:54 9,3 C 8,3 C 7,8 C 77 % 997,8 hPa 0,0 l/m 0 min 0 min 27 W/m 9,7 km/h (2 Bft) 93,62 %
03.04.2019 18:56 9,2 C 8,3 C 7,8 C 77 % 997,8 hPa 0,0 l/m 0 min 0 min 27 W/m 9,7 km/h (2 Bft) 93,62 %
03.04.2019 18:58 9,2 C 8,3 C 7,8 C 77 % 997,8 hPa 0,0 l/m 0 min 0 min 26 W/m 9,7 km/h (2 Bft) 97,87 %
03.04.2019 19:00 9,2 C 8,3 C 7,8 C 77 % 997,9 hPa 0,0 l/m 0 min 0 min 23 W/m 9,7 km/h (2 Bft) 95,74 %
03.04.2019 19:02 9,2 C 8,3 C 7,8 C 78 % 997,9 hPa 0,0 l/m 0 min 0 min 20 W/m 6,4 km/h (2 Bft) 95,74 %
03.04.2019 19:04 9,2 C 8,3 C 7,8 C 78 % 997,9 hPa 0,0 l/m 0 min 0 min 18 W/m 6,4 km/h (2 Bft) 95,65 %
03.04.2019 19:06 9,2 C 8,3 C 7,8 C 78 % 997,9 hPa 0,0 l/m 0 min 0 min 16 W/m 9,7 km/h (2 Bft) 95,74 %
03.04.2019 19:08 9,2 C 8,3 C 7,8 C 78 % 997,9 hPa 0,0 l/m 0 min 0 min 16 W/m 9,7 km/h (2 Bft) 97,87 %
03.04.2019 19:10 9,1 C 8,3 C 7,8 C 78 % 997,9 hPa 0,0 l/m 0 min 0 min 16 W/m 16,1 km/h (3 Bft) 97,87 %
03.04.2019 19:12 9,1 C 8,3 C 7,8 C 78 % 997,9 hPa 0,0 l/m 0 min 0 min 16 W/m 9,7 km/h (2 Bft) 95,74 %
03.04.2019 19:14 9,1 C 8,3 C 7,8 C 78 % 997,8 hPa 0,0 l/m 0 min 0 min 16 W/m 12,9 km/h (3 Bft) 97,87 %
03.04.2019 19:16 9,1 C 8,3 C 7,8 C 78 % 997,9 hPa 0,0 l/m 0 min 0 min 14 W/m 16,1 km/h (3 Bft) 97,83 %
03.04.2019 19:18 9,0 C 8,3 C 7,8 C 78 % 997,9 hPa 0,0 l/m 0 min 0 min 14 W/m 12,9 km/h (3 Bft) 97,87 %
03.04.2019 19:20 9,0 C 8,3 C 7,8 C 78 % 998,0 hPa 0,0 l/m 0 min 0 min 13 W/m 6,4 km/h (2 Bft) 97,87 %
03.04.2019 19:22 9,0 C 8,3 C 7,8 C 79 % 998,2 hPa 0,0 l/m 0 min 0 min 11 W/m 9,7 km/h (2 Bft) 95,74 %
03.04.2019 19:24 8,9 C 8,3 C 7,8 C 79 % 998,2 hPa 0,0 l/m 0 min 0 min 10 W/m 9,7 km/h (2 Bft) 97,87 %
03.04.2019 19:26 8,9 C 8,3 C 7,8 C 79 % 998,1 hPa 0,0 l/m 0 min 0 min 9 W/m 9,7 km/h (2 Bft) 100,00 %
03.04.2019 19:28 8,9 C 8,3 C 7,8 C 79 % 998,0 hPa 0,0 l/m 0 min 0 min 9 W/m 9,7 km/h (2 Bft) 97,83 %
03.04.2019 19:30 8,9 C 8,3 C 7,8 C 79 % 997,9 hPa 0,0 l/m 0 min 0 min 11 W/m 9,7 km/h (2 Bft) 100,00 %
03.04.2019 19:32 8,9 C 7,8 C 7,8 C 79 % 997,9 hPa 0,0 l/m 0 min 0 min 9 W/m 9,7 km/h (2 Bft) 97,87 %
03.04.2019 19:34 8,8 C 7,8 C 7,8 C 79 % 997,9 hPa 0,0 l/m 0 min 0 min 9 W/m 9,7 km/h (2 Bft) 93,62 %
03.04.2019 19:36 8,8 C 7,8 C 7,8 C 79 % 998,0 hPa 0,0 l/m 0 min 0 min 9 W/m 9,7 km/h (2 Bft) 72,34 %
03.04.2019 19:38 8,8 C 8,3 C 7,8 C 79 % 998,0 hPa 0,0 l/m 0 min 0 min 9 W/m 12,9 km/h (3 Bft) 91,49 %
03.04.2019 19:40 8,8 C 7,8 C 7,8 C 79 % 998,1 hPa 0,0 l/m 0 min 0 min 7 W/m 9,7 km/h (2 Bft) 100,00 %
03.04.2019 19:42 8,8 C 7,8 C 7,8 C 79 % 998,0 hPa 0,0 l/m 0 min 0 min 7 W/m 9,7 km/h (2 Bft) 97,87 %
03.04.2019 19:44 8,7 C 7,8 C 7,8 C 79 % 998,1 hPa 0,0 l/m 0 min 0 min 7 W/m 9,7 km/h (2 Bft) 97,87 %
03.04.2019 19:46 8,7 C 7,8 C 7,2 C 79 % 998,1 hPa 0,0 l/m 0 min 0 min 5 W/m 9,7 km/h (2 Bft) 100,00 %
03.04.2019 19:48 8,7 C 7,8 C 7,2 C 79 % 998,1 hPa 0,0 l/m 0 min 0 min 5 W/m 9,7 km/h (2 Bft) 100,00 %
03.04.2019 19:50 8,7 C 7,8 C 7,2 C 79 % 998,0 hPa 0,0 l/m 0 min 0 min 5 W/m 9,7 km/h (2 Bft) 100,00 %
03.04.2019 19:52 8,7 C 7,8 C 7,2 C 79 % 997,9 hPa 0,0 l/m 0 min 0 min 0 W/m 9,7 km/h (2 Bft) 100,00 %
03.04.2019 19:54 8,7 C 7,8 C 7,2 C 80 % 997,8 hPa 0,0 l/m 0 min 0 min 0 W/m 9,7 km/h (2 Bft) 100,00 %
03.04.2019 19:56 8,7 C 7,8 C 7,2 C 80 % 997,8 hPa 0,0 l/m 0 min 0 min 0 W/m 9,7 km/h (2 Bft) 100,00 %
03.04.2019 19:58 8,7 C 7,8 C 7,2 C 80 % 997,8 hPa 0,0 l/m 0 min 0 min 0 W/m 16,1 km/h (3 Bft) 100,00 %
03.04.2019 20:00 8,6 C 7,8 C 7,2 C 80 % 997,9 hPa 0,0 l/m 0 min 0 min 0 W/m 6,4 km/h (2 Bft) 100,00 %
03.04.2019 20:02 8,6 C 7,8 C 7,2 C 80 % 998,0 hPa 0,0 l/m 0 min 0 min 0 W/m 12,9 km/h (3 Bft) 97,87 %
03.04.2019 20:04 8,6 C 7,8 C 7,2 C 80 % 998,0 hPa 0,0 l/m 0 min 0 min 0 W/m 6,4 km/h (2 Bft) 100,00 %
03.04.2019 20:06 8,6 C 7,8 C 7,2 C 80 % 998,2 hPa 0,0 l/m 0 min 0 min 0 W/m 6,4 km/h (2 Bft) 100,00 %
03.04.2019 20:08 8,6 C 7,8 C 7,2 C 80 % 998,2 hPa 0,0 l/m 0 min 0 min 0 W/m 9,7 km/h (2 Bft) 100,00 %
03.04.2019 20:10 8,6 C 7,8 C 7,2 C 80 % 998,0 hPa 0,0 l/m 0 min 0 min 0 W/m 9,7 km/h (2 Bft) 100,00 %
03.04.2019 20:12 8,6 C 7,8 C 7,2 C 80 % 998,1 hPa 0,0 l/m 0 min 0 min 0 W/m 6,4 km/h (2 Bft) 97,87 %
03.04.2019 20:14 8,6 C 7,8 C 7,2 C 80 % 998,1 hPa 0,0 l/m 0 min 0 min 0 W/m 12,9 km/h (3 Bft) 97,83 %
03.04.2019 20:16 8,5 C 7,8 C 7,2 C 80 % 998,2 hPa 0,0 l/m 0 min 0 min 0 W/m 9,7 km/h (2 Bft) 95,74 %
03.04.2019 20:18 8,5 C 7,8 C 7,2 C 81 % 998,2 hPa 0,0 l/m 0 min 0 min 0 W/m 6,4 km/h (2 Bft) 100,00 %
03.04.2019 20:20 8,5 C 7,8 C 7,2 C 81 % 998,1 hPa 0,0 l/m 0 min 0 min 0 W/m 9,7 km/h (2 Bft) 100,00 %
03.04.2019 20:22 8,5 C 7,8 C 7,2 C 81 % 998,0 hPa 0,0 l/m 0 min 0 min 0 W/m 9,7 km/h (2 Bft) 100,00 %
03.04.2019 20:24 8,5 C 7,8 C 7,2 C 81 % 998,1 hPa 0,0 l/m 0 min 0 min 0 W/m 9,7 km/h (2 Bft) 97,87 %
03.04.2019 20:26 8,4 C 7,8 C 7,2 C 81 % 998,2 hPa 0,0 l/m 0 min 0 min 0 W/m 9,7 km/h (2 Bft) 91,30 %
03.04.2019 20:28 8,4 C 7,8 C 7,2 C 81 % 998,1 hPa 0,0 l/m 0 min 0 min 0 W/m 6,4 km/h (2 Bft) 100,00 %
03.04.2019 20:30 8,4 C 7,8 C 7,2 C 81 % 998,1 hPa 0,0 l/m 0 min 0 min 0 W/m 6,4 km/h (2 Bft) 95,74 %
03.04.2019 20:32 8,4 C 7,8 C 6,7 C 81 % 998,1 hPa 0,0 l/m 0 min 0 min 0 W/m 6,4 km/h (2 Bft) 97,87 %
03.04.2019 20:34 8,4 C 7,8 C 6,7 C 81 % 998,2 hPa 0,0 l/m 0 min 0 min 0 W/m 6,4 km/h (2 Bft) 100,00 %
03.04.2019 20:36 8,4 C 7,8 C 6,7 C 81 % 998,2 hPa 0,0 l/m 0 min 0 min 0 W/m 6,4 km/h (2 Bft) 100,00 %
03.04.2019 20:38 8,4 C 7,8 C 6,7 C 81 % 998,3 hPa 0,0 l/m 0 min 0 min 0 W/m 9,7 km/h (2 Bft) 97,83 %
03.04.2019 20:40 8,3 C 7,8 C 7,2 C 82 % 998,3 hPa 0,0 l/m 0 min 0 min 0 W/m 9,7 km/h (2 Bft) 97,87 %
03.04.2019 20:42 8,3 C 7,8 C 7,2 C 82 % 998,4 hPa 0,0 l/m 0 min 0 min 0 W/m 6,4 km/h (2 Bft) 97,87 %
03.04.2019 20:44 8,3 C 7,8 C 7,2 C 82 % 998,4 hPa 0,0 l/m 0 min 0 min 0 W/m 9,7 km/h (2 Bft) 97,87 %
03.04.2019 20:46 8,3 C 7,8 C 7,2 C 82 % 998,4 hPa 0,0 l/m 0 min 0 min 0 W/m 9,7 km/h (2 Bft) 93,62 %
03.04.2019 20:48 8,3 C 7,8 C 7,2 C 82 % 998,3 hPa 0,0 l/m 0 min 0 min 0 W/m 6,4 km/h (2 Bft) 95,74 %
03.04.2019 20:50 8,3 C 7,8 C 7,2 C 82 % 998,3 hPa 0,0 l/m 0 min 0 min 0 W/m 6,4 km/h (2 Bft) 95,65 %
03.04.2019 20:52 8,3 C 7,8 C 7,2 C 82 % 998,3 hPa 0,0 l/m 0 min 0 min 0 W/m 9,7 km/h (2 Bft) 97,87 %
03.04.2019 20:54 8,2 C 7,8 C 7,2 C 82 % 998,3 hPa 0,0 l/m 0 min 0 min 0 W/m 9,7 km/h (2 Bft) 95,74 %
03.04.2019 20:56 8,2 C 7,8 C 7,2 C 82 % 998,3 hPa 0,0 l/m 0 min 0 min 0 W/m 9,7 km/h (2 Bft) 97,87 %
03.04.2019 20:58 8,2 C 7,8 C 7,2 C 82 % 998,4 hPa 0,0 l/m 0 min 0 min 0 W/m 9,7 km/h (2 Bft) 97,87 %
03.04.2019 21:00 8,2 C 7,8 C 7,2 C 82 % 998,4 hPa 0,0 l/m 0 min 0 min 0 W/m 6,4 km/h (2 Bft) 93,48 %
03.04.2019 21:02 8,2 C 7,8 C 7,2 C 82 % 998,4 hPa 0,0 l/m 0 min 0 min 0 W/m 6,4 km/h (2 Bft) 95,74 %
03.04.2019 21:04 8,2 C 7,2 C 7,2 C 82 % 998,4 hPa 0,0 l/m 0 min 2 min 0 W/m 6,4 km/h (2 Bft) 95,74 %
03.04.2019 21:06 8,2 C 7,2 C 6,7 C 82 % 998,6 hPa 0,0 l/m 0 min 0 min 0 W/m 6,4 km/h (2 Bft) 91,49 %
03.04.2019 21:08 8,2 C 7,2 C 6,7 C 82 % 998,6 hPa 0,0 l/m 0 min 0 min 0 W/m 6,4 km/h (2 Bft) 95,74 %
03.04.2019 21:10 8,2 C 7,2 C 6,7 C 82 % 998,6 hPa 0,0 l/m 0 min 0 min 0 W/m 9,7 km/h (2 Bft) 95,74 %
03.04.2019 21:12 8,2 C 7,2 C 6,7 C 82 % 998,7 hPa 0,0 l/m 0 min 0 min 0 W/m 9,7 km/h (2 Bft) 95,65 %
03.04.2019 21:14 8,1 C 7,2 C 6,7 C 82 % 998,7 hPa 0,0 l/m 0 min 0 min 0 W/m 9,7 km/h (2 Bft) 95,74 %
03.04.2019 21:16 8,1 C 7,2 C 6,7 C 82 % 998,8 hPa 0,0 l/m 0 min 0 min 0 W/m 12,9 km/h (3 Bft) 95,74 %
03.04.2019 21:18 8,1 C 7,2 C 6,7 C 82 % 998,8 hPa 0,0 l/m 0 min 2 min 0 W/m 12,9 km/h (3 Bft) 91,49 %
03.04.2019 21:20 8,1 C 7,2 C 6,7 C 82 % 998,8 hPa 0,0 l/m 0 min 0 min 0 W/m 12,9 km/h (3 Bft) 93,62 %
03.04.2019 21:22 8,1 C 7,2 C 6,7 C 82 % 998,7 hPa 0,0 l/m 0 min 0 min 0 W/m 12,9 km/h (3 Bft) 95,74 %
03.04.2019 21:24 8,0 C 7,2 C 6,7 C 81 % 998,9 hPa 0,0 l/m 0 min 0 min 0 W/m 16,1 km/h (3 Bft) 93,48 %
03.04.2019 21:26 8,0 C 7,2 C 6,7 C 81 % 998,9 hPa 0,0 l/m 0 min 0 min 0 W/m 9,7 km/h (2 Bft) 95,74 %
03.04.2019 21:28 7,9 C 7,2 C 6,7 C 81 % 998,8 hPa 0,0 l/m 0 min 0 min 0 W/m 12,9 km/h (3 Bft) 95,74 %
03.04.2019 21:30 7,9 C 7,2 C 6,7 C 81 % 998,9 hPa 0,0 l/m 0 min 0 min 0 W/m 9,7 km/h (2 Bft) 95,74 %
03.04.2019 21:32 7,9 C 7,2 C 6,7 C 81 % 998,8 hPa 0,0 l/m 0 min 0 min 0 W/m 9,7 km/h (2 Bft) 95,74 %
03.04.2019 21:34 7,9 C 6,7 C 6,7 C 81 % 998,8 hPa 0,0 l/m 0 min 0 min 0 W/m 12,9 km/h (3 Bft) 93,62 %
03.04.2019 21:36 7,8 C 6,7 C 6,7 C 80 % 998,8 hPa 0,0 l/m 0 min 0 min 0 W/m 9,7 km/h (2 Bft) 93,48 %
03.04.2019 21:38 7,8 C 6,7 C 6,7 C 81 % 998,7 hPa 0,0 l/m 0 min 0 min 0 W/m 16,1 km/h (3 Bft) 97,87 %
03.04.2019 21:40 7,8 C 6,7 C 6,1 C 80 % 998,7 hPa 0,0 l/m 0 min 0 min 0 W/m 12,9 km/h (3 Bft) 95,74 %
03.04.2019 21:42 7,7 C 6,7 C 6,1 C 80 % 998,6 hPa 0,0 l/m 0 min 0 min 0 W/m 12,9 km/h (3 Bft) 97,87 %
03.04.2019 21:44 7,7 C 6,7 C 6,1 C 80 % 998,6 hPa 0,0 l/m 0 min 0 min 0 W/m 9,7 km/h (2 Bft) 97,87 %
03.04.2019 21:46 7,7 C 6,7 C 6,1 C 80 % 998,6 hPa 0,0 l/m 0 min 0 min 0 W/m 9,7 km/h (2 Bft) 100,00 %
03.04.2019 21:48 7,7 C 6,7 C 6,1 C 81 % 998,7 hPa 0,0 l/m 0 min 0 min 0 W/m 6,4 km/h (2 Bft) 100,00 %
03.04.2019 21:50 7,6 C 6,7 C 6,1 C 81 % 998,6 hPa 0,0 l/m 0 min 0 min 0 W/m 6,4 km/h (2 Bft) 93,62 %
03.04.2019 21:52 7,6 C 6,7 C 6,1 C 81 % 998,6 hPa 0,0 l/m 0 min 0 min 0 W/m 6,4 km/h (2 Bft) 100,00 %
03.04.2019 21:54 7,6 C 6,7 C 6,1 C 81 % 998,6 hPa 0,0 l/m 0 min 0 min 0 W/m 3,2 km/h (1 Bft) 95,74 %
03.04.2019 21:56 7,6 C 6,7 C 6,1 C 81 % 998,7 hPa 0,0 l/m 0 min 0 min 0 W/m 6,4 km/h (2 Bft) 97,87 %
03.04.2019 21:58 7,6 C 6,7 C 6,1 C 81 % 998,8 hPa 0,0 l/m 0 min 0 min 0 W/m 9,7 km/h (2 Bft) 100,00 %
03.04.2019 22:00 7,5 C 6,7 C 6,1 C 81 % 998,9 hPa 0,0 l/m 0 min 0 min 0 W/m 6,4 km/h (2 Bft) 100,00 %
03.04.2019 22:02 7,5 C 6,7 C 6,1 C 81 % 999,0 hPa 0,0 l/m 0 min 0 min 0 W/m 9,7 km/h (2 Bft) 95,74 %
03.04.2019 22:04 7,4 C 6,7 C 6,1 C 81 % 998,9 hPa 0,0 l/m 0 min 0 min 0 W/m 6,4 km/h (2 Bft) 97,87 %
03.04.2019 22:06 7,4 C 6,7 C 6,1 C 81 % 999,0 hPa 0,0 l/m 0 min 0 min 0 W/m 6,4 km/h (2 Bft) 97,87 %
03.04.2019 22:08 7,4 C 6,7 C 6,1 C 81 % 999,0 hPa 0,0 l/m 0 min 0 min 0 W/m 9,7 km/h (2 Bft) 97,87 %
03.04.2019 22:10 7,4 C 6,7 C 6,1 C 81 % 998,9 hPa 0,0 l/m 0 min 0 min 0 W/m 6,4 km/h (2 Bft) 97,87 %
03.04.2019 22:12 7,4 C 6,7 C 6,1 C 82 % 999,0 hPa 0,0 l/m 0 min 0 min 0 W/m 9,7 km/h (2 Bft) 97,83 %
03.04.2019 22:14 7,3 C 6,7 C 6,1 C 82 % 999,0 hPa 0,0 l/m 0 min 0 min 0 W/m 6,4 km/h (2 Bft) 97,87 %
03.04.2019 22:16 7,3 C 6,7 C 6,1 C 82 % 998,9 hPa 0,0 l/m 0 min 0 min 0 W/m 6,4 km/h (2 Bft) 95,74 %
03.04.2019 22:18 7,3 C 6,7 C 6,1 C 82 % 998,8 hPa 0,0 l/m 0 min 0 min 0 W/m 6,4 km/h (2 Bft) 97,87 %
03.04.2019 22:20 7,3 C 6,1 C 5,6 C 82 % 998,7 hPa 0,0 l/m 0 min 0 min 0 W/m 6,4 km/h (2 Bft) 97,87 %
03.04.2019 22:22 7,3 C 6,1 C 5,6 C 82 % 998,6 hPa 0,0 l/m 0 min 0 min 0 W/m 6,4 km/h (2 Bft) 97,83 %
03.04.2019 22:24 7,2 C 6,1 C 5,6 C 82 % 998,6 hPa 0,0 l/m 0 min 0 min 0 W/m 6,4 km/h (2 Bft) 97,87 %
03.04.2019 22:26 7,2 C 6,1 C 5,6 C 82 % 998,5 hPa 0,0 l/m 0 min 0 min 0 W/m 9,7 km/h (2 Bft) 95,74 %
03.04.2019 22:28 7,2 C 6,1 C 5,6 C 82 % 998,4 hPa 0,0 l/m 0 min 0 min 0 W/m 6,4 km/h (2 Bft) 95,74 %
03.04.2019 22:30 7,2 C 6,1 C 5,6 C 83 % 998,4 hPa 0,0 l/m 0 min 0 min 0 W/m 6,4 km/h (2 Bft) 97,87 %
03.04.2019 22:32 7,2 C 6,1 C 5,6 C 83 % 998,4 hPa 0,0 l/m 0 min 0 min 0 W/m 6,4 km/h (2 Bft) 97,87 %
03.04.2019 22:34 7,2 C 6,1 C 5,6 C 83 % 998,5 hPa 0,0 l/m 0 min 0 min 0 W/m 6,4 km/h (2 Bft) 95,65 %
03.04.2019 22:36 7,1 C 6,1 C 5,6 C 83 % 998,6 hPa 0,0 l/m 0 min 0 min 0 W/m 9,7 km/h (2 Bft) 97,87 %
03.04.2019 22:38 7,1 C 6,1 C 5,6 C 83 % 998,6 hPa 0,0 l/m 0 min 0 min 0 W/m 9,7 km/h (2 Bft) 97,87 %
03.04.2019 22:40 7,1 C 6,1 C 5,6 C 83 % 998,6 hPa 0,0 l/m 0 min 0 min 0 W/m 6,4 km/h (2 Bft) 97,87 %
03.04.2019 22:42 7,1 C 6,1 C 5,6 C 83 % 998,6 hPa 0,0 l/m 0 min 0 min 0 W/m 6,4 km/h (2 Bft) 97,87 %
03.04.2019 22:44 7,1 C 6,1 C 5,6 C 83 % 998,6 hPa 0,0 l/m 0 min 0 min 0 W/m 9,7 km/h (2 Bft) 97,87 %
03.04.2019 22:46 7,0 C 6,1 C 5,6 C 83 % 998,6 hPa 0,0 l/m 0 min 0 min 0 W/m 6,4 km/h (2 Bft) 93,48 %
03.04.2019 22:48 7,0 C 6,1 C 5,6 C 84 % 998,6 hPa 0,0 l/m 0 min 0 min 0 W/m 6,4 km/h (2 Bft) 97,87 %
03.04.2019 22:50 7,0 C 6,1 C 5,6 C 84 % 998,7 hPa 0,0 l/m 0 min 0 min 0 W/m 6,4 km/h (2 Bft) 97,87 %
03.04.2019 22:52 6,9 C 6,1 C 5,6 C 84 % 998,7 hPa 0,0 l/m 0 min 0 min 0 W/m 6,4 km/h (2 Bft) 97,87 %
03.04.2019 22:54 6,9 C 6,1 C 5,6 C 84 % 998,7 hPa 0,0 l/m 0 min 0 min 0 W/m 6,4 km/h (2 Bft) 97,87 %
03.04.2019 22:56 6,9 C 6,1 C 5,6 C 84 % 998,6 hPa 0,0 l/m 0 min 0 min 0 W/m 9,7 km/h (2 Bft) 97,87 %
03.04.2019 22:58 6,9 C 6,1 C 5,6 C 84 % 998,7 hPa 0,0 l/m 0 min 0 min 0 W/m 6,4 km/h (2 Bft) 97,83 %
03.04.2019 23:00 6,9 C 6,1 C 5,6 C 84 % 998,9 hPa 0,0 l/m 0 min 0 min 0 W/m 9,7 km/h (2 Bft) 97,87 %
03.04.2019 23:02 6,9 C 6,1 C 5,6 C 84 % 998,8 hPa 0,0 l/m 0 min 0 min 0 W/m 6,4 km/h (2 Bft) 97,87 %
03.04.2019 23:04 6,9 C 6,1 C 5,6 C 85 % 998,8 hPa 0,0 l/m 0 min 0 min 0 W/m 6,4 km/h (2 Bft) 97,87 %
03.04.2019 23:06 6,9 C 6,1 C 5,6 C 85 % 998,7 hPa 0,0 l/m 0 min 0 min 0 W/m 9,7 km/h (2 Bft) 97,87 %
03.04.2019 23:08 6,8 C 6,1 C 5,6 C 85 % 998,6 hPa 0,0 l/m 0 min 0 min 0 W/m 9,7 km/h (2 Bft) 97,87 %
03.04.2019 23:10 6,8 C 6,1 C 5,6 C 85 % 998,4 hPa 0,0 l/m 0 min 0 min 0 W/m 3,2 km/h (1 Bft) 100,00 %
03.04.2019 23:12 6,8 C 6,1 C 5,6 C 85 % 998,4 hPa 0,0 l/m 0 min 0 min 0 W/m 3,2 km/h (1 Bft) 100,00 %
03.04.2019 23:14 6,8 C 6,1 C 5,6 C 85 % 998,4 hPa 0,0 l/m 0 min 0 min 0 W/m 6,4 km/h (2 Bft) 97,87 %
03.04.2019 23:16 6,8 C 6,1 C 5,6 C 85 % 998,4 hPa 0,0 l/m 0 min 0 min 0 W/m 3,2 km/h (1 Bft) 95,74 %
03.04.2019 23:18 6,8 C 6,1 C 5,6 C 85 % 998,3 hPa 0,0 l/m 0 min 0 min 0 W/m 3,2 km/h (1 Bft) 100,00 %
03.04.2019 23:20 6,8 C 6,1 C 5,6 C 85 % 998,2 hPa 0,0 l/m 0 min 0 min 0 W/m 3,2 km/h (1 Bft) 100,00 %
03.04.2019 23:22 6,8 C 6,1 C 5,6 C 85 % 998,1 hPa 0,0 l/m 0 min 0 min 0 W/m 3,2 km/h (1 Bft) 97,83 %
03.04.2019 23:24 6,8 C 6,1 C 5,6 C 85 % 998,1 hPa 0,0 l/m 0 min 0 min 0 W/m 0,0 km/h (0 Bft) 97,87 %
03.04.2019 23:26 6,8 C 6,1 C 5,6 C 85 % 998,1 hPa 0,0 l/m 0 min 0 min 0 W/m 3,2 km/h (1 Bft) 95,74 %
03.04.2019 23:28 6,7 C 6,1 C 5,6 C 85 % 998,0 hPa 0,0 l/m 0 min 0 min 0 W/m 3,2 km/h (1 Bft) 95,74 %
03.04.2019 23:30 6,7 C 5,6 C 5,6 C 85 % 998,0 hPa 0,0 l/m 0 min 0 min 0 W/m 3,2 km/h (1 Bft) 97,87 %
03.04.2019 23:32 6,7 C 5,6 C 5,0 C 85 % 997,9 hPa 0,0 l/m 0 min 0 min 0 W/m 3,2 km/h (1 Bft) 95,65 %
03.04.2019 23:34 6,7 C 6,1 C 5,0 C 86 % 998,0 hPa 0,0 l/m 0 min 0 min 0 W/m 6,4 km/h (2 Bft) 97,87 %
03.04.2019 23:36 6,7 C 6,1 C 5,0 C 86 % 998,2 hPa 0,0 l/m 0 min 0 min 0 W/m 6,4 km/h (2 Bft) 97,87 %
03.04.2019 23:38 6,7 C 6,1 C 5,0 C 86 % 998,3 hPa 0,0 l/m 0 min 0 min 0 W/m 3,2 km/h (1 Bft) 97,87 %
03.04.2019 23:40 6,7 C 6,1 C 5,6 C 86 % 998,2 hPa 0,0 l/m 0 min 0 min 0 W/m 3,2 km/h (1 Bft) 97,87 %
03.04.2019 23:42 6,7 C 6,1 C 5,6 C 86 % 998,2 hPa 0,0 l/m 0 min 0 min 0 W/m 6,4 km/h (2 Bft) 95,74 %
03.04.2019 23:44 6,7 C 6,1 C 5,6 C 86 % 998,2 hPa 0,0 l/m 0 min 0 min 0 W/m 3,2 km/h (1 Bft) 97,83 %
03.04.2019 23:46 6,7 C 6,1 C 5,6 C 86 % 998,2 hPa 0,0 l/m 0 min 0 min 0 W/m 6,4 km/h (2 Bft) 95,74 %
03.04.2019 23:48 6,6 C 6,1 C 5,6 C 86 % 998,4 hPa 0,0 l/m 0 min 0 min 0 W/m 9,7 km/h (2 Bft) 93,62 %
03.04.2019 23:50 6,6 C 6,1 C 5,6 C 86 % 998,4 hPa 0,0 l/m 0 min 0 min 0 W/m 6,4 km/h (2 Bft) 95,74 %
03.04.2019 23:52 6,6 C 6,1 C 5,6 C 86 % 998,3 hPa 0,0 l/m 0 min 0 min 0 W/m 6,4 km/h (2 Bft) 95,74 %
03.04.2019 23:54 6,6 C 6,1 C 5,6 C 86 % 998,3 hPa 0,0 l/m 0 min 0 min 0 W/m 6,4 km/h (2 Bft) 95,74 %
03.04.2019 23:56 6,6 C 6,1 C 5,6 C 86 % 998,3 hPa 0,0 l/m 0 min 0 min 0 W/m 6,4 km/h (2 Bft) 93,48 %
03.04.2019 23:58 6,6 C 6,1 C 5,6 C 86 % 998,3 hPa 0,0 l/m 0 min 0 min 0 W/m 3,2 km/h (1 Bft) 95,74 %
_ Min-Zeit 06:14 05:22 06:36 17:12 18:54 - - - - 01:46 19:36
Minimum _ 6,3 C 5,0 C 4,4 C 72 % 997,8 hPa - - - - 0,0 km/h (0 Bft) 72,34 %
_ Max-Zeit 17:22 15:12 15:48 00:00 01:12 01:16 13:02 00:56 15:14 17:32 00:08
Maximum _ 10,0 C 11,1 C 10,0 C 95 % 1001,4 hPa 0,2 l/m 2 min 2 min 349 W/m 25,7 km/h
S (4 Bft)
100,00 %
Durchschnitt _ 7,7 C 7,0 C 6,5 C 88 % 999,7 hPa #2,4 l/m #4 min. #4:12 h 109 W/m 5,9 km/h (2 Bft) 97,33 %
© 2019 W. Hausmann